Time,TemperatureF,DewpointF,PressureIn,WindDirection,WindDirectionDegrees,WindSpeedMPH,WindSpeedGustMPH,Humidity,HourlyPrecipIn,Conditions,Clouds,dailyrainin,SoftwareType,DateUTC
2013-02-15 00:00:00,24.7,18.8,29.98,North,360,9.1,18.4,78,0.00,RA,,0.00,WeatherDisplay:10.37,2013-02-15 06:00:00,
2013-02-15 00:01:00,24.7,18.8,29.99,North,10,7.9,13.8,78,0.00,RA,,0.00,WeatherDisplay:10.37,2013-02-15 06:01:00,
2013-02-15 00:05:00,24.5,18.6,29.99,WNW,294,3.5,8.1,78,0.00,RA,,0.00,WeatherDisplay:10.37,2013-02-15 06:05:00,
2013-02-15 00:06:00,24.5,18.6,29.99,NE,34,4.5,8.1,78,0.00,RA,,0.00,WeatherDisplay:10.37,2013-02-15 06:06:00,
2013-02-15 00:07:00,24.5,18.6,29.99,North,349,7.5,13.0,78,0.00,RA,,0.00,WeatherDisplay:10.37,2013-02-15 06:07:00,
2013-02-15 00:10:00,24.3,18.4,29.99,North,6,3.3,10.4,78,0.00,CLR,,0.00,WeatherDisplay:10.37,2013-02-15 06:10:00,
2013-02-15 00:11:00,24.3,18.4,29.99,NW,316,3.7,8.0,78,0.00,CLR,,0.00,WeatherDisplay:10.37,2013-02-15 06:11:00,
2013-02-15 00:12:00,24.3,18.4,29.99,NNE,28,5.9,10.4,78,0.00,CLR,,0.00,WeatherDisplay:10.37,2013-02-15 06:12:00,
2013-02-15 00:15:00,24.1,18.2,29.99,WNW,287,4.6,12.7,78,0.00,CLR,,0.00,WeatherDisplay:10.37,2013-02-15 06:15:00,
2013-02-15 00:16:00,24.2,18.3,29.99,NNE,14,5.2,11.6,78,0.00,CLR,,0.00,WeatherDisplay:10.37,2013-02-15 06:16:00,
2013-02-15 00:17:00,24.1,18.5,29.99,North,10,6.0,11.5,79,0.00,CLR,,0.00,WeatherDisplay:10.37,2013-02-15 06:17:00,
2013-02-15 00:20:00,24.0,18.4,29.99,North,0,8.3,13.8,79,0.00,CLR,,0.00,WeatherDisplay:10.37,2013-02-15 06:20:00,
2013-02-15 00:21:00,23.9,18.0,29.99,NNW,339,11.0,12.7,78,0.00,CLR,,0.00,WeatherDisplay:10.37,2013-02-15 06:21:00,
2013-02-15 00:22:00,24.0,18.4,29.99,NE,45,8.9,19.6,79,0.00,CLR,,0.00,WeatherDisplay:10.37,2013-02-15 06:22:00,
2013-02-15 00:26:00,23.9,18.3,29.99,NW,325,6.7,11.5,79,0.00,CLR,,0.00,WeatherDisplay:10.37,2013-02-15 06:26:00,
2013-02-15 00:27:00,23.9,18.3,29.99,NNE,21,6.5,13.8,79,0.00,CLR,,0.00,WeatherDisplay:10.37,2013-02-15 06:27:00,
2013-02-15 00:31:00,23.9,18.3,30.00,NW,312,5.7,11.5,79,0.00,CLR,,0.00,WeatherDisplay:10.37,2013-02-15 06:31:00,
2013-02-15 00:32:00,23.9,18.3,30.00,NNW,333,5.0,11.5,79,0.00,CLR,,0.00,WeatherDisplay:10.37,2013-02-15 06:32:00,
2013-02-15 00:36:00,23.8,18.2,30.00,ENE,59,4.2,9.2,79,0.00,CLR,,0.00,WeatherDisplay:10.37,2013-02-15 06:36:00,
2013-02-15 00:37:00,23.8,18.2,30.00,North,356,3.9,8.1,79,0.00,CLR,,0.00,WeatherDisplay:10.37,2013-02-15 06:37:00,
2013-02-15 00:41:00,23.8,18.2,30.00,WNW,299,6.4,9.8,79,0.00,CLR,,0.00,WeatherDisplay:10.37,2013-02-15 06:41:00,
2013-02-15 00:42:00,23.8,18.2,30.00,NNW,337,7.7,13.8,79,0.00,CLR,,0.00,WeatherDisplay:10.37,2013-02-15 06:42:00,
2013-02-15 00:43:00,23.7,18.1,30.00,WNW,302,9.1,13.8,79,0.00,CLR,,0.00,WeatherDisplay:10.37,2013-02-15 06:43:00,
2013-02-15 00:46:00,23.6,17.7,30.00,WNW,301,8.0,11.5,78,0.00,CLR,,0.00,WeatherDisplay:10.37,2013-02-15 06:46:00,
2013-02-15 00:47:00,23.6,17.7,30.00,North,3,6.9,11.5,78,0.00,CLR,,0.00,WeatherDisplay:10.37,2013-02-15 06:47:00,
2013-02-15 00:48:00,23.6,17.4,30.00,North,4,6.1,9.2,77,0.00,CLR,,0.00,WeatherDisplay:10.37,2013-02-15 06:48:00,
2013-02-15 00:51:00,23.5,17.0,30.00,NW,306,7.6,9.2,76,0.00,CLR,,0.00,WeatherDisplay:10.37,2013-02-15 06:51:00,
2013-02-15 00:52:00,23.5,17.0,30.00,North,4,6.9,11.5,76,0.00,CLR,,0.00,WeatherDisplay:10.37,2013-02-15 06:52:00,
2013-02-15 00:53:00,23.4,16.9,30.00,NNW,342,5.1,8.6,76,0.00,CLR,,0.00,WeatherDisplay:10.37,2013-02-15 06:53:00,
2013-02-15 00:57:00,23.3,16.9,30.00,WNW,296,6.2,9.2,76,0.00,CLR,,0.00,WeatherDisplay:10.37,2013-02-15 06:57:00,
2013-02-15 00:58:00,23.2,16.8,30.00,North,4,6.2,8.1,76,0.00,CLR,,0.00,WeatherDisplay:10.37,2013-02-15 06:58:00,
2013-02-15 01:02:00,23.1,17.0,30.00,NW,309,2.9,6.9,77,0.00,CLR,,0.00,WeatherDisplay:10.37,2013-02-15 07:02:00,
2013-02-15 01:03:00,23.1,17.0,30.01,North,360,4.7,8.1,77,0.00,CLR,,0.00,WeatherDisplay:10.37,2013-02-15 07:03:00,
2013-02-15 01:07:00,23.0,17.2,30.01,North,360,4.5,6.9,78,0.00,CLR,,0.00,WeatherDisplay:10.37,2013-02-15 07:07:00,
2013-02-15 01:08:00,22.9,17.1,30.01,NNW,340,4.3,6.9,78,0.00,CLR,,0.00,WeatherDisplay:10.37,2013-02-15 07:08:00,
2013-02-15 01:12:00,22.8,17.0,30.01,NNW,339,4.6,8.1,78,0.00,CLR,,0.00,WeatherDisplay:10.37,2013-02-15 07:12:00,
2013-02-15 01:13:00,22.8,17.0,30.01,NW,326,3.6,5.8,78,0.00,CLR,,0.00,WeatherDisplay:10.37,2013-02-15 07:13:00,
2013-02-15 01:17:00,22.7,16.9,30.01,NNW,328,5.3,12.7,78,0.00,CLR,,0.00,WeatherDisplay:10.37,2013-02-15 07:17:00,
2013-02-15 01:18:00,22.7,16.9,30.01,WNW,298,4.1,9.2,78,0.00,CLR,,0.00,WeatherDisplay:10.37,2013-02-15 07:18:00,
2013-02-15 01:19:00,22.7,16.9,30.01,NW,313,3.5,8.1,78,0.00,CLR,,0.00,WeatherDisplay:10.37,2013-02-15 07:19:00,
2013-02-15 01:22:00,22.6,16.8,30.02,NNW,346,4.1,9.2,78,0.00,CLR,,0.00,WeatherDisplay:10.37,2013-02-15 07:22:00,
2013-02-15 01:23:00,22.5,16.7,30.02,NW,305,5.3,8.1,78,0.00,CLR,,0.00,WeatherDisplay:10.37,2013-02-15 07:23:00,
2013-02-15 01:24:00,22.6,16.8,30.02,NE,54,4.2,6.9,78,0.00,CLR,,0.00,WeatherDisplay:10.37,2013-02-15 07:24:00,
2013-02-15 01:28:00,22.5,17.0,30.02,NNE,23,2.9,4.6,79,0.00,CLR,,0.00,WeatherDisplay:10.37,2013-02-15 07:28:00,
2013-02-15 01:29:00,22.4,16.9,30.02,NW,325,4.9,8.1,79,0.00,CLR,,0.00,WeatherDisplay:10.37,2013-02-15 07:29:00,
2013-02-15 01:33:00,22.4,16.9,30.02,NNW,333,3.6,9.1,79,0.00,CLR,,0.00,WeatherDisplay:10.37,2013-02-15 07:33:00,
2013-02-15 01:34:00,22.2,16.4,30.02,NNW,333,7.8,11.5,78,0.00,CLR,,0.00,WeatherDisplay:10.37,2013-02-15 07:34:00,
2013-02-15 01:38:00,22.1,15.7,30.02,NW,322,6.1,11.5,76,0.00,CLR,,0.00,WeatherDisplay:10.37,2013-02-15 07:38:00,
2013-02-15 01:40:00,21.9,15.8,30.03,NNE,17,4.8,10.4,77,0.00,CLR,,0.00,WeatherDisplay:10.37,2013-02-15 07:40:00,
2013-02-15 01:43:00,21.7,15.3,30.03,NNW,332,7.1,13.8,76,0.00,CLR,,0.00,WeatherDisplay:10.37,2013-02-15 07:43:00,
2013-02-15 01:45:00,21.5,15.1,30.03,North,7,6.9,9.2,76,0.00,CLR,,0.00,WeatherDisplay:10.37,2013-02-15 07:45:00,
2013-02-15 01:48:00,21.2,14.2,30.03,NNE,31,8.6,11.5,74,0.00,CLR,,0.00,WeatherDisplay:10.37,2013-02-15 07:48:00,
2013-02-15 01:49:00,21.3,14.3,30.03,NE,45,8.4,13.8,74,0.00,CLR,,0.00,WeatherDisplay:10.37,2013-02-15 07:49:00,
2013-02-15 01:50:00,21.0,14.0,30.03,NW,326,8.0,12.7,74,0.00,CLR,,0.00,WeatherDisplay:10.37,2013-02-15 07:50:00,
2013-02-15 01:53:00,20.9,13.9,30.03,NNW,342,6.2,12.7,74,0.00,CLR,,0.00,WeatherDisplay:10.37,2013-02-15 07:53:00,
2013-02-15 01:54:00,20.7,13.7,30.03,North,360,6.5,11.5,74,0.00,CLR,,0.00,WeatherDisplay:10.37,2013-02-15 07:54:00,
2013-02-15 01:55:00,20.5,13.2,30.03,North,0,6.7,13.8,73,0.00,CLR,,0.00,WeatherDisplay:10.37,2013-02-15 07:55:00,
2013-02-15 01:59:00,20.3,13.0,30.03,North,360,5.1,9.2,73,0.00,CLR,,0.00,WeatherDisplay:10.37,2013-02-15 07:59:00,
2013-02-15 02:01:00,20.2,13.2,30.03,WNW,299,5.1,10.4,74,0.00,CLR,,0.00,WeatherDisplay:10.37,2013-02-15 08:01:00,
2013-02-15 02:04:00,20.1,13.1,30.04,NE,34,4.5,8.3,74,0.00,CLR,,0.00,WeatherDisplay:10.37,2013-02-15 08:04:00,
2013-02-15 02:06:00,20.0,13.0,30.04,WSW,240,4.6,6.9,74,0.00,CLR,,0.00,WeatherDisplay:10.37,2013-02-15 08:06:00,
2013-02-15 02:09:00,19.7,12.8,30.04,NNW,342,8.3,12.7,74,0.00,CLR,,0.00,WeatherDisplay:10.37,2013-02-15 08:09:00,
2013-02-15 02:11:00,19.6,12.7,30.04,NNW,344,6.8,13.8,74,0.00,CLR,,0.00,WeatherDisplay:10.37,2013-02-15 08:11:00,
2013-02-15 02:14:00,19.4,12.5,30.04,NNE,18,3.1,6.0,74,0.00,CLR,,0.00,WeatherDisplay:10.37,2013-02-15 08:14:00,
2013-02-15 02:15:00,19.4,12.5,30.04,NNE,13,4.1,6.9,74,0.00,CLR,,0.00,WeatherDisplay:10.37,2013-02-15 08:15:00,
2013-02-15 02:16:00,19.3,12.4,30.04,WSW,256,4.4,9.2,74,0.00,CLR,,0.00,WeatherDisplay:10.37,2013-02-15 08:16:00,
2013-02-15 02:19:00,19.0,12.4,30.04,North,360,6.0,8.1,75,0.00,CLR,,0.00,WeatherDisplay:10.37,2013-02-15 08:19:00,
2013-02-15 02:20:00,19.0,12.1,30.04,NW,322,3.7,12.7,74,0.00,CLR,,0.00,WeatherDisplay:10.37,2013-02-15 08:20:00,
2013-02-15 02:22:00,18.8,11.9,30.04,North,350,6.9,9.2,74,0.00,CLR,,0.00,WeatherDisplay:10.37,2013-02-15 08:22:00,
2013-02-15 02:24:00,18.5,11.6,30.04,NNW,340,5.0,6.9,74,0.00,CLR,,0.00,WeatherDisplay:10.37,2013-02-15 08:24:00,
2013-02-15 02:26:00,18.5,11.6,30.04,NNW,343,5.7,9.2,74,0.00,CLR,,0.00,WeatherDisplay:10.37,2013-02-15 08:26:00,
2013-02-15 02:27:00,18.4,11.8,30.05,NW,325,3.3,8.1,75,0.00,CLR,,0.00,WeatherDisplay:10.37,2013-02-15 08:27:00,
2013-02-15 02:29:00,18.3,11.7,30.05,NW,305,1.9,6.3,75,0.00,CLR,,0.00,WeatherDisplay:10.37,2013-02-15 08:29:00,
2013-02-15 02:30:00,18.2,11.6,30.05,North,360,3.2,9.2,75,0.00,CLR,,0.00,WeatherDisplay:10.37,2013-02-15 08:30:00,
2013-02-15 02:31:00,18.2,11.6,30.05,NNW,340,5.4,6.9,75,0.00,CLR,,0.00,WeatherDisplay:10.37,2013-02-15 08:31:00,
2013-02-15 02:32:00,18.1,11.5,30.05,NNW,336,5.9,11.5,75,0.00,CLR,,0.00,WeatherDisplay:10.37,2013-02-15 08:32:00,
2013-02-15 02:34:00,17.9,11.3,30.05,NNW,342,5.4,10.4,75,0.00,CLR,,0.00,WeatherDisplay:10.37,2013-02-15 08:34:00,
2013-02-15 02:35:00,17.8,11.2,30.05,North,356,4.9,8.1,75,0.00,CLR,,0.00,WeatherDisplay:10.37,2013-02-15 08:35:00,
2013-02-15 02:37:00,17.9,11.3,30.05,North,10,6.6,13.8,75,0.00,CLR,,0.00,WeatherDisplay:10.37,2013-02-15 08:37:00,
2013-02-15 02:39:00,17.7,11.1,30.05,North,7,5.0,6.9,75,0.00,CLR,,0.00,WeatherDisplay:10.37,2013-02-15 08:39:00,
2013-02-15 02:40:00,17.6,11.0,30.05,NNW,335,4.7,10.4,75,0.00,CLR,,0.00,WeatherDisplay:10.37,2013-02-15 08:40:00,
2013-02-15 02:42:00,17.5,11.2,30.05,North,352,4.9,8.9,76,0.00,CLR,,0.00,WeatherDisplay:10.37,2013-02-15 08:42:00,
2013-02-15 02:45:00,17.3,11.0,30.05,NW,325,5.1,9.2,76,0.00,CLR,,0.00,WeatherDisplay:10.37,2013-02-15 08:45:00,
2013-02-15 02:47:00,17.3,11.0,30.05,NNW,329,6.6,11.7,76,0.00,CLR,,0.00,WeatherDisplay:10.37,2013-02-15 08:47:00,
2013-02-15 02:48:00,17.2,10.9,30.05,WNW,298,7.6,12.7,76,0.00,CLR,,0.00,WeatherDisplay:10.37,2013-02-15 08:48:00,
2013-02-15 02:50:00,17.2,10.9,30.05,North,360,4.1,5.8,76,0.00,CLR,,0.00,WeatherDisplay:10.37,2013-02-15 08:50:00,
2013-02-15 02:52:00,17.0,10.7,30.05,West,272,6.1,11.3,76,0.00,CLR,,0.00,WeatherDisplay:10.37,2013-02-15 08:52:00,
2013-02-15 02:53:00,17.0,10.7,30.05,North,7,6.4,11.5,76,0.00,CLR,,0.00,WeatherDisplay:10.37,2013-02-15 08:53:00,
2013-02-15 02:55:00,16.9,10.6,30.05,North,360,5.1,6.9,76,0.00,CLR,,0.00,WeatherDisplay:10.37,2013-02-15 08:55:00,
2013-02-15 02:57:00,16.9,10.6,30.05,North,1,5.8,7.8,76,0.00,CLR,,0.00,WeatherDisplay:10.37,2013-02-15 08:57:00,
2013-02-15 02:58:00,16.8,10.5,30.05,NNW,347,4.8,8.1,76,0.00,CLR,,0.00,WeatherDisplay:10.37,2013-02-15 08:58:00,
2013-02-15 03:00:00,16.8,10.5,30.05,NW,309,6.7,9.2,76,0.00,CLR,,0.00,WeatherDisplay:10.37,2013-02-15 09:00:00,
2013-02-15 03:02:00,16.7,10.4,30.05,North,11,5.6,8.1,76,0.00,CLR,,0.00,WeatherDisplay:10.37,2013-02-15 09:02:00,
2013-02-15 03:03:00,16.6,10.3,30.05,NNW,330,4.5,8.1,76,0.00,CLR,,0.00,WeatherDisplay:10.37,2013-02-15 09:03:00,
2013-02-15 03:05:00,16.6,10.3,30.05,NW,325,4.5,8.1,76,0.00,CLR,,0.00,WeatherDisplay:10.37,2013-02-15 09:05:00,
2013-02-15 03:08:00,16.5,10.3,30.05,NNW,339,3.7,6.9,76,0.00,CLR,,0.00,WeatherDisplay:10.37,2013-02-15 09:08:00,
2013-02-15 03:10:00,16.4,10.2,30.05,NW,305,5.8,11.5,76,0.00,CLR,,0.00,WeatherDisplay:10.37,2013-02-15 09:10:00,
2013-02-15 03:11:00,16.4,10.2,30.05,NNW,330,5.6,11.5,76,0.00,CLR,,0.00,WeatherDisplay:10.37,2013-02-15 09:11:00,
2013-02-15 03:13:00,16.4,10.2,30.06,WNW,291,4.5,9.2,76,0.00,CLR,,0.00,WeatherDisplay:10.37,2013-02-15 09:13:00,
2013-02-15 03:14:00,16.3,10.1,30.06,WNW,282,3.7,6.9,76,0.00,CLR,,0.00,WeatherDisplay:10.37,2013-02-15 09:14:00,
2013-02-15 03:15:00,16.2,10.0,30.05,NNW,347,6.0,8.1,76,0.00,CLR,,0.00,WeatherDisplay:10.37,2013-02-15 09:15:00,
2013-02-15 03:16:00,16.2,10.0,30.05,NW,304,5.9,8.1,76,0.00,CLR,,0.00,WeatherDisplay:10.37,2013-02-15 09:16:00,
2013-02-15 03:18:00,16.2,10.0,30.05,North,360,4.4,9.2,76,0.00,CLR,,0.00,WeatherDisplay:10.37,2013-02-15 09:18:00,
2013-02-15 03:19:00,16.1,9.9,30.05,NW,312,5.5,9.2,76,0.00,CLR,,0.00,WeatherDisplay:10.37,2013-02-15 09:19:00,
2013-02-15 03:21:00,16.1,9.9,30.06,NW,318,4.5,9.2,76,0.00,CLR,,0.00,WeatherDisplay:10.37,2013-02-15 09:21:00,
2013-02-15 03:24:00,16.0,10.1,30.06,NW,319,3.9,6.9,77,0.00,CLR,,0.00,WeatherDisplay:10.37,2013-02-15 09:24:00,
2013-02-15 03:26:00,15.9,10.0,30.06,NNE,13,4.7,9.2,77,0.00,CLR,,0.00,WeatherDisplay:10.37,2013-02-15 09:26:00,
2013-02-15 03:29:00,15.8,9.9,30.06,NW,323,3.3,8.1,77,0.00,CLR,,0.00,WeatherDisplay:10.37,2013-02-15 09:29:00,
2013-02-15 03:31:00,15.9,10.0,30.06,NW,311,3.4,8.1,77,0.00,CLR,,0.00,WeatherDisplay:10.37,2013-02-15 09:31:00,
2013-02-15 03:34:00,15.7,9.8,30.06,NNW,332,3.4,6.9,77,0.00,CLR,,0.00,WeatherDisplay:10.37,2013-02-15 09:34:00,
2013-02-15 03:35:00,15.8,9.9,30.06,NW,316,4.6,6.9,77,0.00,CLR,,0.00,WeatherDisplay:10.37,2013-02-15 09:35:00,
2013-02-15 03:36:00,15.7,9.8,30.06,NNW,344,3.5,6.9,77,0.00,CLR,,0.00,WeatherDisplay:10.37,2013-02-15 09:36:00,
2013-02-15 03:40:00,15.5,9.6,30.06,North,354,3.1,4.8,77,0.00,CLR,,0.00,WeatherDisplay:10.37,2013-02-15 09:40:00,
2013-02-15 03:41:00,15.6,9.7,30.06,WNW,299,3.9,5.7,77,0.00,CLR,,0.00,WeatherDisplay:10.37,2013-02-15 09:41:00,
2013-02-15 03:45:00,15.4,9.5,30.06,North,360,4.6,8.1,77,0.00,CLR,,0.00,WeatherDisplay:10.37,2013-02-15 09:45:00,
2013-02-15 03:46:00,15.5,9.6,30.06,WNW,289,2.3,8.1,77,0.00,CLR,,0.00,WeatherDisplay:10.37,2013-02-15 09:46:00,
2013-02-15 03:50:00,15.4,9.5,30.06,SW,220,3.1,5.8,77,0.00,CLR,,0.00,WeatherDisplay:10.37,2013-02-15 09:50:00,
2013-02-15 03:51:00,15.4,9.5,30.06,NW,325,4.0,9.2,77,0.00,CLR,,0.00,WeatherDisplay:10.37,2013-02-15 09:51:00,
2013-02-15 03:52:00,15.4,9.5,30.06,SSE,152,3.4,6.9,77,0.00,CLR,,0.00,WeatherDisplay:10.37,2013-02-15 09:52:00,
2013-02-15 03:55:00,15.3,9.4,30.07,NW,316,3.2,5.8,77,0.00,CLR,,0.00,WeatherDisplay:10.37,2013-02-15 09:55:00,
2013-02-15 03:56:00,15.1,9.5,30.07,West,270,3.0,4.6,78,0.00,CLR,,0.00,WeatherDisplay:10.37,2013-02-15 09:56:00,
2013-02-15 03:57:00,15.2,9.6,30.07,NW,316,2.8,4.6,78,0.00,CLR,,0.00,WeatherDisplay:10.37,2013-02-15 09:57:00,
2013-02-15 04:00:00,15.2,9.6,30.07,NW,308,3.7,6.9,78,0.00,CLR,,0.00,WeatherDisplay:10.37,2013-02-15 10:00:00,
2013-02-15 04:01:00,15.2,9.6,30.07,NW,304,3.2,6.9,78,0.00,CLR,,0.00,WeatherDisplay:10.37,2013-02-15 10:01:00,
2013-02-15 04:02:00,15.2,9.6,30.07,WNW,298,3.1,3.7,78,0.00,CLR,,0.00,WeatherDisplay:10.37,2013-02-15 10:02:00,
2013-02-15 04:05:00,15.1,9.5,30.07,NW,315,3.5,5.7,78,0.00,CLR,,0.00,WeatherDisplay:10.37,2013-02-15 10:05:00,
2013-02-15 04:06:00,15.0,9.4,30.07,NW,323,3.6,8.1,78,0.00,CLR,,0.00,WeatherDisplay:10.37,2013-02-15 10:06:00,
2013-02-15 04:07:00,15.0,9.4,30.07,NW,311,3.1,4.6,78,0.00,CLR,,0.00,WeatherDisplay:10.37,2013-02-15 10:07:00,
2013-02-15 04:10:00,15.0,9.4,30.08,NNW,346,3.6,5.8,78,0.00,CLR,,0.00,WeatherDisplay:10.37,2013-02-15 10:10:00,
2013-02-15 04:11:00,14.9,9.3,30.08,NW,325,3.2,8.1,78,0.00,CLR,,0.00,WeatherDisplay:10.37,2013-02-15 10:11:00,
2013-02-15 04:12:00,14.8,9.2,30.08,WNW,295,5.2,5.2,78,0.00,CLR,,0.00,WeatherDisplay:10.37,2013-02-15 10:12:00,
2013-02-15 04:16:00,14.8,9.2,30.08,WNW,299,3.0,5.8,78,0.00,CLR,,0.00,WeatherDisplay:10.37,2013-02-15 10:16:00,
2013-02-15 04:17:00,14.7,9.1,30.08,NNW,339,1.7,4.6,78,0.00,CLR,,0.00,WeatherDisplay:10.37,2013-02-15 10:17:00,
2013-02-15 04:21:00,14.6,9.0,30.08,NNE,13,3.3,6.9,78,0.00,CLR,,0.00,WeatherDisplay:10.37,2013-02-15 10:21:00,
2013-02-15 04:22:00,14.6,9.0,30.08,NW,319,3.4,5.8,78,0.00,CLR,,0.00,WeatherDisplay:10.37,2013-02-15 10:22:00,
2013-02-15 04:23:00,14.6,9.0,30.08,NW,320,2.7,5.8,78,0.00,CLR,,0.00,WeatherDisplay:10.37,2013-02-15 10:23:00,
2013-02-15 04:26:00,14.6,9.0,30.08,North,357,3.9,6.9,78,0.00,CLR,,0.00,WeatherDisplay:10.37,2013-02-15 10:26:00,
2013-02-15 04:27:00,14.6,9.0,30.08,NW,304,4.3,6.9,78,0.00,CLR,,0.00,WeatherDisplay:10.37,2013-02-15 10:27:00,
2013-02-15 04:28:00,14.6,9.0,30.08,NW,326,3.5,5.8,78,0.00,CLR,,0.00,WeatherDisplay:10.37,2013-02-15 10:28:00,
2013-02-15 04:31:00,14.6,9.3,30.08,NW,312,1.9,4.4,79,0.00,CLR,,0.00,WeatherDisplay:10.37,2013-02-15 10:31:00,
2013-02-15 04:32:00,14.6,9.3,30.08,North,349,3.9,5.8,79,0.00,CLR,,0.00,WeatherDisplay:10.37,2013-02-15 10:32:00,
2013-02-15 04:33:00,14.5,9.2,30.08,NW,313,2.4,4.6,79,0.00,CLR,,0.00,WeatherDisplay:10.37,2013-02-15 10:33:00,
2013-02-15 04:36:00,14.4,9.1,30.08,SW,229,0.0,4.6,79,0.00,CLR,,0.00,WeatherDisplay:10.37,2013-02-15 10:36:00,
2013-02-15 04:37:00,14.4,9.1,30.08,WNW,287,1.8,3.3,79,0.00,CLR,,0.00,WeatherDisplay:10.37,2013-02-15 10:37:00,
2013-02-15 04:38:00,14.3,9.0,30.08,NW,325,1.5,3.5,79,0.00,CLR,,0.00,WeatherDisplay:10.37,2013-02-15 10:38:00,
2013-02-15 04:41:00,14.4,9.1,30.08,NW,313,2.0,4.6,79,0.00,CLR,,0.00,WeatherDisplay:10.37,2013-02-15 10:41:00,
2013-02-15 04:42:00,14.3,9.0,30.09,NNW,330,2.2,4.6,79,0.00,CLR,,0.00,WeatherDisplay:10.37,2013-02-15 10:42:00,
2013-02-15 04:43:00,14.2,8.9,30.09,NNW,329,2.0,4.6,79,0.00,CLR,,0.00,WeatherDisplay:10.37,2013-02-15 10:43:00,
2013-02-15 04:47:00,14.2,8.9,30.09,North,349,2.5,6.9,79,0.00,CLR,,0.00,WeatherDisplay:10.37,2013-02-15 10:47:00,
2013-02-15 04:48:00,14.1,8.8,30.08,NW,313,1.9,2.4,79,0.00,CLR,,0.00,WeatherDisplay:10.37,2013-02-15 10:48:00,
2013-02-15 04:52:00,14.1,9.1,30.09,WNW,291,1.8,3.5,80,0.00,CLR,,0.00,WeatherDisplay:10.37,2013-02-15 10:52:00,
2013-02-15 04:53:00,14.0,9.0,30.09,North,8,2.7,4.6,80,0.00,CLR,,0.00,WeatherDisplay:10.37,2013-02-15 10:53:00,
2013-02-15 04:57:00,13.9,8.9,30.09,WNW,291,2.2,4.6,80,0.00,CLR,,0.00,WeatherDisplay:10.37,2013-02-15 10:57:00,
2013-02-15 04:58:00,13.8,8.8,30.09,NW,308,3.7,5.8,80,0.00,CLR,,0.00,WeatherDisplay:10.37,2013-02-15 10:58:00,
2013-02-15 05:02:00,13.8,8.8,30.10,NW,325,3.0,4.6,80,0.00,CLR,,0.00,WeatherDisplay:10.37,2013-02-15 11:02:00,
2013-02-15 05:03:00,13.7,8.7,30.10,NW,306,2.4,4.6,80,0.00,CLR,,0.00,WeatherDisplay:10.37,2013-02-15 11:03:00,
2013-02-15 05:07:00,13.7,8.7,30.10,NW,305,1.6,3.8,80,0.00,CLR,,0.00,WeatherDisplay:10.37,2013-02-15 11:07:00,
2013-02-15 05:08:00,13.7,8.7,30.10,WNW,292,4.2,6.9,80,0.00,CLR,,0.00,WeatherDisplay:10.37,2013-02-15 11:08:00,
2013-02-15 05:12:00,13.6,8.6,30.10,WNW,298,3.2,4.6,80,0.00,CLR,,0.00,WeatherDisplay:10.37,2013-02-15 11:12:00,
2013-02-15 05:13:00,13.6,8.6,30.10,NW,323,3.0,4.6,80,0.00,CLR,,0.00,WeatherDisplay:10.37,2013-02-15 11:13:00,
2013-02-15 05:14:00,13.6,8.6,30.10,NW,312,2.9,4.8,80,0.00,CLR,,0.00,WeatherDisplay:10.37,2013-02-15 11:14:00,
2013-02-15 05:18:00,13.5,8.5,30.10,WNW,302,2.7,5.8,80,0.00,CLR,,0.00,WeatherDisplay:10.37,2013-02-15 11:18:00,
2013-02-15 05:19:00,13.4,8.4,30.10,NNW,343,3.8,4.6,80,0.00,CLR,,0.00,WeatherDisplay:10.37,2013-02-15 11:19:00,
2013-02-15 05:23:00,13.3,8.3,30.10,NW,326,2.2,5.8,80,0.00,CLR,,0.00,WeatherDisplay:10.37,2013-02-15 11:23:00,
2013-02-15 05:24:00,13.4,8.4,30.10,NW,304,3.4,5.8,80,0.00,CLR,,0.00,WeatherDisplay:10.37,2013-02-15 11:24:00,
2013-02-15 05:28:00,13.3,8.3,30.11,NW,318,4.6,6.9,80,0.00,CLR,,0.00,WeatherDisplay:10.37,2013-02-15 11:28:00,
2013-02-15 05:29:00,13.3,8.3,30.11,NW,309,4.5,6.9,80,0.00,CLR,,0.00,WeatherDisplay:10.37,2013-02-15 11:29:00,
2013-02-15 05:34:00,13.3,8.3,30.11,WNW,298,3.3,4.6,80,0.00,CLR,,0.00,WeatherDisplay:10.37,2013-02-15 11:34:00,
2013-02-15 05:39:00,13.1,8.1,30.11,WNW,294,4.1,6.9,80,0.00,CLR,,0.00,WeatherDisplay:10.37,2013-02-15 11:39:00,
2013-02-15 05:40:00,13.1,8.1,30.11,North,0,1.7,3.5,80,0.00,CLR,,0.00,WeatherDisplay:10.37,2013-02-15 11:40:00,
2013-02-15 05:44:00,13.1,8.4,30.11,NW,315,0.9,4.6,81,0.00,CLR,,0.00,WeatherDisplay:10.37,2013-02-15 11:44:00,
2013-02-15 05:45:00,13.1,8.4,30.11,NW,312,2.0,3.2,81,0.00,CLR,,0.00,WeatherDisplay:10.37,2013-02-15 11:45:00,
2013-02-15 05:49:00,13.0,8.3,30.11,North,349,2.0,3.5,81,0.00,CLR,,0.00,WeatherDisplay:10.37,2013-02-15 11:49:00,
2013-02-15 05:50:00,13.0,8.3,30.11,NW,305,1.4,2.3,81,0.00,CLR,,0.00,WeatherDisplay:10.37,2013-02-15 11:50:00,
2013-02-15 05:54:00,12.9,8.2,30.11,NW,305,2.2,3.5,81,0.00,CLR,,0.00,WeatherDisplay:10.37,2013-02-15 11:54:00,
2013-02-15 05:55:00,12.8,8.1,30.11,NW,325,3.0,4.6,81,0.00,CLR,,0.00,WeatherDisplay:10.37,2013-02-15 11:55:00,
2013-02-15 05:59:00,12.8,8.1,30.11,West,270,2.4,3.5,81,0.00,CLR,,0.00,WeatherDisplay:10.37,2013-02-15 11:59:00,
2013-02-15 06:00:00,12.8,8.1,30.11,NNW,340,2.0,3.5,81,0.00,CLR,,0.00,WeatherDisplay:10.37,2013-02-15 12:00:00,
2013-02-15 06:05:00,12.7,8.0,30.11,NW,308,2.8,5.6,81,0.00,CLR,,0.00,WeatherDisplay:10.37,2013-02-15 12:05:00,
2013-02-15 06:10:00,12.6,7.9,30.11,NNW,340,3.2,3.5,81,0.00,CLR,,0.00,WeatherDisplay:10.37,2013-02-15 12:10:00,
2013-02-15 06:11:00,12.5,7.8,30.11,NW,313,2.3,4.6,81,0.00,CLR,,0.00,WeatherDisplay:10.37,2013-02-15 12:11:00,
2013-02-15 06:15:00,12.5,7.8,30.11,NNW,335,2.7,3.8,81,0.00,CLR,,0.00,WeatherDisplay:10.37,2013-02-15 12:15:00,
2013-02-15 06:16:00,12.5,7.8,30.11,WNW,296,2.6,4.6,81,0.00,CLR,,0.00,WeatherDisplay:10.37,2013-02-15 12:16:00,
2013-02-15 06:21:00,12.3,7.6,30.11,NW,305,1.1,2.3,81,0.00,CLR,,0.00,WeatherDisplay:10.37,2013-02-15 12:21:00,
2013-02-15 06:26:00,12.3,7.6,30.11,WNW,302,1.6,2.7,81,0.00,CLR,,0.00,WeatherDisplay:10.37,2013-02-15 12:26:00,
2013-02-15 06:27:00,12.3,7.6,30.11,NNW,339,2.5,4.6,81,0.00,CLR,,0.00,WeatherDisplay:10.37,2013-02-15 12:27:00,
2013-02-15 06:31:00,12.1,7.4,30.11,NW,320,0.8,1.1,81,0.00,CLR,,0.00,WeatherDisplay:10.37,2013-02-15 12:31:00,
2013-02-15 06:33:00,12.2,7.5,30.11,WNW,296,1.4,3.1,81,0.00,CLR,,0.00,WeatherDisplay:10.37,2013-02-15 12:33:00,
2013-02-15 06:36:00,12.1,7.4,30.11,WNW,288,2.9,4.6,81,0.00,CLR,,0.00,WeatherDisplay:10.37,2013-02-15 12:36:00,
2013-02-15 06:37:00,12.1,7.4,30.12,NW,322,2.3,4.6,81,0.00,CLR,,0.00,WeatherDisplay:10.37,2013-02-15 12:37:00,
2013-02-15 06:38:00,12.1,7.4,30.12,NW,311,1.9,5.3,81,0.00,CLR,,0.00,WeatherDisplay:10.37,2013-02-15 12:38:00,
2013-02-15 06:41:00,12.1,7.4,30.12,WNW,285,2.3,4.6,81,0.00,CLR,,0.00,WeatherDisplay:10.37,2013-02-15 12:41:00,
2013-02-15 06:42:00,12.1,7.4,30.12,NW,322,1.9,3.5,81,0.00,CLR,,0.00,WeatherDisplay:10.37,2013-02-15 12:42:00,
2013-02-15 06:43:00,12.0,7.3,30.12,WNW,294,0.2,2.3,81,0.00,CLR,,0.00,WeatherDisplay:10.37,2013-02-15 12:43:00,
2013-02-15 06:46:00,12.0,7.3,30.12,NW,306,1.0,3.5,81,0.00,CLR,,0.00,WeatherDisplay:10.37,2013-02-15 12:46:00,
2013-02-15 06:47:00,12.0,7.3,30.12,West,277,1.8,3.5,81,0.00,CLR,,0.00,WeatherDisplay:10.37,2013-02-15 12:47:00,
2013-02-15 06:48:00,11.9,7.2,30.12,NNW,328,1.7,3.5,81,0.00,CLR,,0.00,WeatherDisplay:10.37,2013-02-15 12:48:00,
2013-02-15 06:52:00,11.9,7.2,30.12,NNW,328,2.2,3.5,81,0.00,CLR,,0.00,WeatherDisplay:10.37,2013-02-15 12:52:00,
2013-02-15 06:53:00,11.8,7.1,30.12,NNW,342,0.3,1.1,81,0.00,CLR,,0.00,WeatherDisplay:10.37,2013-02-15 12:53:00,
2013-02-15 06:57:00,11.7,7.0,30.12,West,268,0.1,2.3,81,0.00,CLR,,0.00,WeatherDisplay:10.37,2013-02-15 12:57:00,
2013-02-15 06:59:00,11.5,7.1,30.12,NW,322,1.3,3.5,82,0.00,CLR,,0.00,WeatherDisplay:10.37,2013-02-15 12:59:00,
2013-02-15 07:02:00,11.4,7.0,30.12,West,274,1.6,3.5,82,0.00,CLR,,0.00,WeatherDisplay:10.37,2013-02-15 13:02:00,
2013-02-15 07:04:00,11.4,7.0,30.12,WNW,298,1.5,3.5,82,0.00,CLR,,0.00,WeatherDisplay:10.37,2013-02-15 13:04:00,
2013-02-15 07:07:00,11.4,7.0,30.12,WSW,251,0.1,1.1,82,0.00,CLR,,0.00,WeatherDisplay:10.37,2013-02-15 13:07:00,
2013-02-15 07:08:00,11.5,7.1,30.12,WNW,301,0.9,3.8,82,0.00,CLR,,0.00,WeatherDisplay:10.37,2013-02-15 13:08:00,
2013-02-15 07:09:00,11.5,7.1,30.12,WSW,237,0.2,4.6,82,0.00,CLR,,0.00,WeatherDisplay:10.37,2013-02-15 13:09:00,
2013-02-15 07:12:00,11.4,7.0,30.12,West,263,1.3,3.5,82,0.00,CLR,,0.00,WeatherDisplay:10.37,2013-02-15 13:12:00,
2013-02-15 07:13:00,11.4,7.0,30.12,West,263,0.0,1.1,82,0.00,CLR,,0.00,WeatherDisplay:10.37,2013-02-15 13:13:00,
2013-02-15 07:15:00,11.2,6.8,30.12,WNW,291,1.6,3.5,82,0.00,CLR,,0.00,WeatherDisplay:10.37,2013-02-15 13:15:00,
2013-02-15 07:17:00,11.4,7.0,30.12,NNW,336,0.0,1.1,82,0.00,CLR,,0.00,WeatherDisplay:10.37,2013-02-15 13:17:00,
2013-02-15 07:18:00,11.4,7.0,30.13,NW,320,1.1,3.5,82,0.00,CLR,,0.00,WeatherDisplay:10.37,2013-02-15 13:18:00,
2013-02-15 07:20:00,11.3,6.9,30.13,West,264,1.3,2.3,82,0.00,CLR,,0.00,WeatherDisplay:10.37,2013-02-15 13:20:00,
2013-02-15 07:22:00,11.4,7.0,30.13,NW,323,2.1,3.5,82,0.00,CLR,,0.00,WeatherDisplay:10.37,2013-02-15 13:22:00,
2013-02-15 07:23:00,11.4,7.0,30.13,WNW,291,1.3,3.5,82,0.00,CLR,,0.00,WeatherDisplay:10.37,2013-02-15 13:23:00,
2013-02-15 07:25:00,11.4,7.0,30.13,NNW,340,2.1,3.0,82,0.00,CLR,,0.00,WeatherDisplay:10.37,2013-02-15 13:25:00,
2013-02-15 07:28:00,11.4,7.0,30.13,West,277,1.2,2.3,82,0.00,CLR,,0.00,WeatherDisplay:10.37,2013-02-15 13:28:00,
2013-02-15 07:30:00,11.5,7.1,30.13,West,281,0.5,1.1,82,0.00,CLR,,0.00,WeatherDisplay:10.37,2013-02-15 13:30:00,
2013-02-15 07:33:00,11.4,7.0,30.13,WNW,295,1.1,2.3,82,0.00,CLR,,0.00,WeatherDisplay:10.37,2013-02-15 13:33:00,
2013-02-15 07:34:00,11.3,6.9,30.13,North,7,0.6,2.3,82,0.00,CLR,,0.00,WeatherDisplay:10.37,2013-02-15 13:34:00,
2013-02-15 07:35:00,11.5,7.1,30.13,NW,319,0.4,1.1,82,0.00,CLR,,0.00,WeatherDisplay:10.37,2013-02-15 13:35:00,
2013-02-15 07:38:00,11.5,7.1,30.13,West,263,1.1,2.3,82,0.00,CLR,,0.00,WeatherDisplay:10.37,2013-02-15 13:38:00,
2013-02-15 07:39:00,11.5,7.1,30.13,WNW,291,0.8,2.7,82,0.00,CLR,,0.00,WeatherDisplay:10.37,2013-02-15 13:39:00,
2013-02-15 07:41:00,11.6,7.2,30.13,NW,319,1.7,5.0,82,0.00,CLR,,0.00,WeatherDisplay:10.37,2013-02-15 13:41:00,
2013-02-15 07:43:00,11.6,7.2,30.14,WNW,296,2.1,5.2,82,0.00,CLR,,0.00,WeatherDisplay:10.37,2013-02-15 13:43:00,
2013-02-15 07:44:00,11.6,7.2,30.14,WNW,284,3.4,5.8,82,0.00,CLR,,0.00,WeatherDisplay:10.37,2013-02-15 13:44:00,
2013-02-15 07:45:00,11.6,7.2,30.14,WNW,288,3.3,4.6,82,0.00,CLR,,0.00,WeatherDisplay:10.37,2013-02-15 13:45:00,
2013-02-15 07:46:00,11.8,7.4,30.14,NW,309,2.6,4.6,82,0.00,CLR,,0.00,WeatherDisplay:10.37,2013-02-15 13:46:00,
2013-02-15 07:48:00,11.9,7.5,30.14,WSW,256,2.4,4.6,82,0.00,CLR,,0.00,WeatherDisplay:10.37,2013-02-15 13:48:00,
2013-02-15 07:49:00,11.9,7.5,30.14,WNW,298,3.7,5.8,82,0.00,CLR,,0.00,WeatherDisplay:10.37,2013-02-15 13:49:00,
2013-02-15 07:50:00,12.1,7.7,30.14,NW,311,3.0,5.8,82,0.00,CLR,,0.00,WeatherDisplay:10.37,2013-02-15 13:50:00,
2013-02-15 07:51:00,12.1,7.7,30.14,WNW,299,1.9,5.8,82,0.00,CLR,,0.00,WeatherDisplay:10.37,2013-02-15 13:51:00,
2013-02-15 07:53:00,12.2,7.8,30.14,WNW,285,2.5,4.6,82,0.00,CLR,,0.00,WeatherDisplay:10.37,2013-02-15 13:53:00,
2013-02-15 07:54:00,12.2,7.8,30.14,WNW,299,3.2,4.6,82,0.00,CLR,,0.00,WeatherDisplay:10.37,2013-02-15 13:54:00,
2013-02-15 07:55:00,12.4,8.0,30.14,NW,306,1.8,4.6,82,0.00,CLR,,0.00,WeatherDisplay:10.37,2013-02-15 13:55:00,
2013-02-15 07:56:00,12.4,7.7,30.14,WNW,288,2.4,4.6,81,0.00,CLR,,0.00,WeatherDisplay:10.37,2013-02-15 13:56:00,
2013-02-15 07:58:00,12.6,7.9,30.14,WNW,285,2.2,3.0,81,0.00,CLR,,0.00,WeatherDisplay:10.37,2013-02-15 13:58:00,
2013-02-15 07:59:00,12.6,7.9,30.14,NW,320,3.9,5.8,81,0.00,CLR,,0.00,WeatherDisplay:10.37,2013-02-15 13:59:00,
2013-02-15 08:01:00,12.7,8.0,30.14,NW,318,4.2,5.9,81,0.00,CLR,,0.00,WeatherDisplay:10.37,2013-02-15 14:01:00,
2013-02-15 08:02:00,12.7,8.0,30.14,NW,323,4.4,6.9,81,0.00,CLR,,0.00,WeatherDisplay:10.37,2013-02-15 14:02:00,
2013-02-15 08:03:00,12.7,8.0,30.14,NW,305,2.2,4.6,81,0.00,CLR,,0.00,WeatherDisplay:10.37,2013-02-15 14:03:00,
2013-02-15 08:04:00,12.8,8.1,30.14,NW,309,0.6,3.0,81,0.00,CLR,,0.00,WeatherDisplay:10.37,2013-02-15 14:04:00,
2013-02-15 08:06:00,13.0,8.3,30.14,NW,315,3.9,6.9,81,0.00,CLR,,0.00,WeatherDisplay:10.37,2013-02-15 14:06:00,
2013-02-15 08:07:00,12.9,8.2,30.14,WNW,282,2.0,5.3,81,0.00,CLR,,0.00,WeatherDisplay:10.37,2013-02-15 14:07:00,
2013-02-15 08:08:00,13.1,8.4,30.14,WNW,292,2.9,4.6,81,0.00,CLR,,0.00,WeatherDisplay:10.37,2013-02-15 14:08:00,
2013-02-15 08:09:00,13.1,8.1,30.14,WNW,298,2.9,4.6,80,0.00,CLR,,0.00,WeatherDisplay:10.37,2013-02-15 14:09:00,
2013-02-15 08:11:00,13.1,8.1,30.14,NW,309,0.9,4.6,80,0.00,CLR,,0.00,WeatherDisplay:10.37,2013-02-15 14:11:00,
2013-02-15 08:12:00,13.3,8.3,30.14,West,270,3.6,5.8,80,0.00,CLR,,0.00,WeatherDisplay:10.37,2013-02-15 14:12:00,
2013-02-15 08:14:00,13.3,8.3,30.14,WSW,237,4.7,6.9,80,0.00,CLR,,0.00,WeatherDisplay:10.37,2013-02-15 14:14:00,
2013-02-15 08:15:00,13.4,8.4,30.14,NW,306,3.3,6.9,80,0.00,CLR,,0.00,WeatherDisplay:10.37,2013-02-15 14:15:00,
2013-02-15 08:16:00,13.4,8.4,30.15,NW,325,4.9,5.1,80,0.00,CLR,,0.00,WeatherDisplay:10.37,2013-02-15 14:16:00,
2013-02-15 08:17:00,13.5,8.5,30.15,NW,318,4.7,8.1,80,0.00,CLR,,0.00,WeatherDisplay:10.37,2013-02-15 14:17:00,
2013-02-15 08:19:00,13.6,8.6,30.15,NNW,330,3.7,5.8,80,0.00,CLR,,0.00,WeatherDisplay:10.37,2013-02-15 14:19:00,
2013-02-15 08:20:00,13.4,8.4,30.15,WNW,294,1.4,5.8,80,0.00,CLR,,0.00,WeatherDisplay:10.37,2013-02-15 14:20:00,
2013-02-15 08:21:00,13.6,8.6,30.15,NW,304,2.0,2.5,80,0.00,CLR,,0.00,WeatherDisplay:10.37,2013-02-15 14:21:00,
2013-02-15 08:22:00,13.7,8.7,30.15,NW,305,2.1,4.6,80,0.00,CLR,,0.00,WeatherDisplay:10.37,2013-02-15 14:22:00,
2013-02-15 08:24:00,13.7,8.4,30.15,WNW,299,4.8,6.9,79,0.00,CLR,,0.00,WeatherDisplay:10.37,2013-02-15 14:24:00,
2013-02-15 08:25:00,13.9,8.6,30.15,North,353,3.2,5.8,79,0.00,CLR,,0.00,WeatherDisplay:10.37,2013-02-15 14:25:00,
2013-02-15 08:26:00,13.8,8.5,30.15,NW,308,3.2,5.8,79,0.00,CLR,,0.00,WeatherDisplay:10.37,2013-02-15 14:26:00,
2013-02-15 08:27:00,13.8,8.5,30.15,WNW,292,2.7,5.8,79,0.00,CLR,,0.00,WeatherDisplay:10.37,2013-02-15 14:27:00,
2013-02-15 08:30:00,13.9,8.6,30.15,NW,316,3.3,7.2,79,0.00,CLR,,0.00,WeatherDisplay:10.37,2013-02-15 14:30:00,
2013-02-15 08:31:00,14.0,8.4,30.15,NW,312,3.8,6.9,78,0.00,CLR,,0.00,WeatherDisplay:10.37,2013-02-15 14:31:00,
2013-02-15 08:33:00,14.2,8.6,30.15,NW,305,3.8,6.9,78,0.00,CLR,,0.00,WeatherDisplay:10.37,2013-02-15 14:33:00,
2013-02-15 08:35:00,14.2,8.6,30.15,West,280,3.0,4.6,78,0.00,CLR,,0.00,WeatherDisplay:10.37,2013-02-15 14:35:00,
2013-02-15 08:36:00,14.1,8.5,30.15,WNW,296,2.7,5.4,78,0.00,CLR,,0.00,WeatherDisplay:10.37,2013-02-15 14:36:00,
2013-02-15 08:37:00,14.2,8.6,30.15,NNW,335,4.3,5.8,78,0.00,CLR,,0.00,WeatherDisplay:10.37,2013-02-15 14:37:00,
2013-02-15 08:38:00,14.2,8.6,30.15,North,360,3.9,6.9,78,0.00,CLR,,0.00,WeatherDisplay:10.37,2013-02-15 14:38:00,
2013-02-15 08:40:00,14.3,8.7,30.15,WNW,298,1.4,3.5,78,0.00,CLR,,0.00,WeatherDisplay:10.37,2013-02-15 14:40:00,
2013-02-15 08:41:00,14.2,8.6,30.15,NW,305,3.4,6.2,78,0.00,CLR,,0.00,WeatherDisplay:10.37,2013-02-15 14:41:00,
2013-02-15 08:42:00,14.4,8.8,30.15,WNW,288,2.9,6.9,78,0.00,CLR,,0.00,WeatherDisplay:10.37,2013-02-15 14:42:00,
2013-02-15 08:43:00,14.4,8.8,30.15,NW,308,4.4,5.8,78,0.00,CLR,,0.00,WeatherDisplay:10.37,2013-02-15 14:43:00,
2013-02-15 08:45:00,14.5,8.6,30.15,NNW,328,4.8,7.2,77,0.00,CLR,,0.00,WeatherDisplay:10.37,2013-02-15 14:45:00,
2013-02-15 08:46:00,14.5,8.6,30.15,WNW,289,4.8,6.9,77,0.00,CLR,,0.00,WeatherDisplay:10.37,2013-02-15 14:46:00,
2013-02-15 08:47:00,14.6,8.7,30.15,North,10,3.8,9.2,77,0.00,CLR,,0.00,WeatherDisplay:10.37,2013-02-15 14:47:00,
2013-02-15 08:48:00,14.6,8.7,30.15,West,278,2.5,9.2,77,0.00,CLR,,0.00,WeatherDisplay:10.37,2013-02-15 14:48:00,
2013-02-15 08:50:00,14.7,8.8,30.15,NW,305,3.6,5.8,77,0.00,CLR,,0.00,WeatherDisplay:10.37,2013-02-15 14:50:00,
2013-02-15 08:51:00,14.7,8.5,30.15,NW,305,3.6,6.9,76,0.00,CLR,,0.00,WeatherDisplay:10.37,2013-02-15 14:51:00,
2013-02-15 08:52:00,14.8,8.6,30.15,NW,315,4.9,8.1,76,0.00,CLR,,0.00,WeatherDisplay:10.37,2013-02-15 14:52:00,
2013-02-15 08:53:00,14.9,8.7,30.15,NNW,333,4.2,6.9,76,0.00,CLR,,0.00,WeatherDisplay:10.37,2013-02-15 14:53:00,
2013-02-15 08:55:00,14.9,8.7,30.15,NW,320,3.1,5.8,76,0.00,CLR,,0.00,WeatherDisplay:10.37,2013-02-15 14:55:00,
2013-02-15 08:56:00,14.9,8.7,30.15,NW,311,3.9,6.9,76,0.00,CLR,,0.00,WeatherDisplay:10.37,2013-02-15 14:56:00,
2013-02-15 08:58:00,14.9,8.7,30.15,NNW,333,3.6,6.9,76,0.00,CLR,,0.00,WeatherDisplay:10.37,2013-02-15 14:58:00,
2013-02-15 08:59:00,15.0,8.8,30.15,WNW,289,4.2,6.9,76,0.00,CLR,,0.00,WeatherDisplay:10.37,2013-02-15 14:59:00,
2013-02-15 09:00:00,15.0,8.5,30.15,WNW,284,4.6,5.8,75,0.00,CLR,,0.00,WeatherDisplay:10.37,2013-02-15 15:00:00,
2013-02-15 09:01:00,15.1,8.6,30.15,NNW,336,5.2,6.9,75,0.00,CLR,,0.00,WeatherDisplay:10.37,2013-02-15 15:01:00,
2013-02-15 09:03:00,15.1,8.6,30.15,NW,306,4.0,6.9,75,0.00,CLR,,0.00,WeatherDisplay:10.37,2013-02-15 15:03:00,
2013-02-15 09:04:00,15.2,8.7,30.15,NNE,20,3.5,5.8,75,0.00,CLR,,0.00,WeatherDisplay:10.37,2013-02-15 15:04:00,
2013-02-15 09:06:00,15.4,8.9,30.15,West,264,2.6,4.6,75,0.00,CLR,,0.00,WeatherDisplay:10.37,2013-02-15 15:06:00,
2013-02-15 09:08:00,15.4,8.9,30.15,NW,323,5.6,6.9,75,0.00,CLR,,0.00,WeatherDisplay:10.37,2013-02-15 15:08:00,
2013-02-15 09:09:00,15.4,8.6,30.15,NW,304,2.8,8.1,74,0.00,CLR,,0.00,WeatherDisplay:10.37,2013-02-15 15:09:00,
2013-02-15 09:11:00,15.5,8.7,30.15,NNW,343,4.8,6.9,74,0.00,CLR,,0.00,WeatherDisplay:10.37,2013-02-15 15:11:00,
2013-02-15 09:12:00,15.4,8.6,30.15,WNW,282,5.2,8.1,74,0.00,CLR,,0.00,WeatherDisplay:10.37,2013-02-15 15:12:00,
2013-02-15 09:13:00,15.6,8.8,30.15,WNW,299,3.1,8.1,74,0.00,CLR,,0.00,WeatherDisplay:10.37,2013-02-15 15:13:00,
2013-02-15 09:15:00,15.6,8.8,30.15,West,272,2.7,6.9,74,0.00,CLR,,0.00,WeatherDisplay:10.37,2013-02-15 15:15:00,
2013-02-15 09:16:00,15.6,8.8,30.15,WNW,301,3.8,5.8,74,0.00,CLR,,0.00,WeatherDisplay:10.37,2013-02-15 15:16:00,
2013-02-15 09:17:00,15.7,8.9,30.15,NW,305,3.4,6.8,74,0.00,CLR,,0.00,WeatherDisplay:10.37,2013-02-15 15:17:00,
2013-02-15 09:19:00,15.8,9.0,30.15,NW,320,4.8,9.2,74,0.00,CLR,,0.00,WeatherDisplay:10.37,2013-02-15 15:19:00,
2013-02-15 09:20:00,15.8,9.0,30.15,WNW,288,5.4,8.1,74,0.00,CLR,,0.00,WeatherDisplay:10.37,2013-02-15 15:20:00,
2013-02-15 09:21:00,15.7,8.6,30.16,West,275,5.2,8.1,73,0.00,CLR,,0.00,WeatherDisplay:10.37,2013-02-15 15:21:00,
2013-02-15 09:22:00,15.9,8.8,30.16,NW,305,4.6,6.9,73,0.00,CLR,,0.00,WeatherDisplay:10.37,2013-02-15 15:22:00,
2013-02-15 09:24:00,15.9,8.8,30.16,West,278,4.8,10.4,73,0.00,CLR,,0.00,WeatherDisplay:10.37,2013-02-15 15:24:00,
2013-02-15 09:25:00,16.0,8.9,30.16,WNW,295,3.6,6.9,73,0.00,CLR,,0.00,WeatherDisplay:10.37,2013-02-15 15:25:00,
2013-02-15 09:26:00,16.1,9.0,30.16,NW,306,5.6,6.8,73,0.00,CLR,,0.00,WeatherDisplay:10.37,2013-02-15 15:26:00,
2013-02-15 09:27:00,16.0,8.9,30.16,North,357,5.9,9.2,73,0.00,CLR,,0.00,WeatherDisplay:10.37,2013-02-15 15:27:00,
2013-02-15 09:29:00,16.1,9.0,30.16,North,4,3.9,6.9,73,0.00,CLR,,0.00,WeatherDisplay:10.37,2013-02-15 15:29:00,
2013-02-15 09:30:00,16.2,9.1,30.16,North,349,4.2,6.9,73,0.00,CLR,,0.00,WeatherDisplay:10.37,2013-02-15 15:30:00,
2013-02-15 09:32:00,16.1,9.0,30.16,NW,318,4.3,6.9,73,0.00,CLR,,0.00,WeatherDisplay:10.37,2013-02-15 15:32:00,
2013-02-15 09:34:00,16.3,8.9,30.16,NW,315,5.3,6.9,72,0.00,CLR,,0.00,WeatherDisplay:10.37,2013-02-15 15:34:00,
2013-02-15 09:36:00,16.3,8.9,30.16,WNW,299,5.7,10.4,72,0.00,CLR,,0.00,WeatherDisplay:10.37,2013-02-15 15:36:00,
2013-02-15 09:37:00,16.4,8.9,30.16,NNW,340,4.4,9.8,72,0.00,CLR,,0.00,WeatherDisplay:10.37,2013-02-15 15:37:00,
2013-02-15 09:39:00,16.5,9.0,30.16,NNW,336,3.5,9.2,72,0.00,CLR,,0.00,WeatherDisplay:10.37,2013-02-15 15:39:00,
2013-02-15 09:41:00,16.7,9.2,30.16,NW,318,3.3,6.9,72,0.00,CLR,,0.00,WeatherDisplay:10.37,2013-02-15 15:41:00,
2013-02-15 09:42:00,16.7,9.2,30.16,WNW,302,3.5,5.8,72,0.00,CLR,,0.00,WeatherDisplay:10.37,2013-02-15 15:42:00,
2013-02-15 09:43:00,16.8,9.3,30.16,NNW,342,4.2,5.8,72,0.00,CLR,,0.00,WeatherDisplay:10.37,2013-02-15 15:43:00,
2013-02-15 09:44:00,16.8,9.3,30.16,West,280,2.5,5.8,72,0.00,CLR,,0.00,WeatherDisplay:10.37,2013-02-15 15:44:00,
2013-02-15 09:46:00,16.9,9.4,30.16,NW,316,3.8,6.9,72,0.00,CLR,,0.00,WeatherDisplay:10.37,2013-02-15 15:46:00,
2013-02-15 09:47:00,17.0,9.5,30.16,NW,308,5.4,6.9,72,0.00,CLR,,0.00,WeatherDisplay:10.37,2013-02-15 15:47:00,
2013-02-15 09:49:00,17.1,9.3,30.16,North,356,4.8,9.2,71,0.00,CLR,,0.00,WeatherDisplay:10.37,2013-02-15 15:49:00,
2013-02-15 09:51:00,17.2,9.4,30.16,WSW,239,2.3,4.6,71,0.00,CLR,,0.00,WeatherDisplay:10.37,2013-02-15 15:51:00,
2013-02-15 09:53:00,17.2,9.7,30.16,NW,305,3.1,4.4,72,0.00,CLR,,0.00,WeatherDisplay:10.37,2013-02-15 15:53:00,
2013-02-15 09:55:00,17.3,9.8,30.16,NNE,13,4.5,6.9,72,0.00,CLR,,0.00,WeatherDisplay:10.37,2013-02-15 15:55:00,
2013-02-15 09:57:00,17.5,9.7,30.16,NNE,13,3.0,4.6,71,0.00,CLR,,0.00,WeatherDisplay:10.37,2013-02-15 15:57:00,
2013-02-15 09:58:00,17.5,9.7,30.16,NW,320,2.6,5.8,71,0.00,CLR,,0.00,WeatherDisplay:10.37,2013-02-15 15:58:00,
2013-02-15 10:00:00,17.7,9.9,30.16,NW,319,4.8,6.9,71,0.00,CLR,,0.00,WeatherDisplay:10.37,2013-02-15 16:00:00,
2013-02-15 10:02:00,17.8,10.0,30.15,NW,309,2.6,5.8,71,0.00,CLR,,0.00,WeatherDisplay:10.37,2013-02-15 16:02:00,
2013-02-15 10:03:00,17.8,10.0,30.16,West,267,2.8,6.3,71,0.00,CLR,,0.00,WeatherDisplay:10.37,2013-02-15 16:03:00,
2013-02-15 10:05:00,17.9,10.1,30.16,NW,313,3.9,6.9,71,0.00,CLR,,0.00,WeatherDisplay:10.37,2013-02-15 16:05:00,
2013-02-15 10:08:00,18.0,9.9,30.15,NW,323,2.2,4.6,70,0.00,CLR,,0.00,WeatherDisplay:10.37,2013-02-15 16:08:00,
2013-02-15 10:10:00,18.2,10.1,30.15,West,277,4.4,5.8,70,0.00,CLR,,0.00,WeatherDisplay:10.37,2013-02-15 16:10:00,
2013-02-15 10:11:00,18.1,10.0,30.15,West,272,4.7,6.9,70,0.00,CLR,,0.00,WeatherDisplay:10.37,2013-02-15 16:11:00,
2013-02-15 10:13:00,18.3,10.1,30.15,WNW,295,2.6,4.6,70,0.00,CLR,,0.00,WeatherDisplay:10.37,2013-02-15 16:13:00,
2013-02-15 10:14:00,18.4,10.2,30.15,NW,319,3.0,5.8,70,0.00,CLR,,0.00,WeatherDisplay:10.37,2013-02-15 16:14:00,
2013-02-15 10:15:00,18.4,10.2,30.16,West,272,3.6,5.8,70,0.00,CLR,,0.00,WeatherDisplay:10.37,2013-02-15 16:15:00,
2013-02-15 10:16:00,18.5,10.3,30.15,WSW,240,3.1,5.8,70,0.00,CLR,,0.00,WeatherDisplay:10.37,2013-02-15 16:16:00,
2013-02-15 10:18:00,18.6,10.4,30.16,NW,320,4.6,6.9,70,0.00,CLR,,0.00,WeatherDisplay:10.37,2013-02-15 16:18:00,
2013-02-15 10:19:00,18.6,10.4,30.16,NW,318,3.6,4.6,70,0.00,CLR,,0.00,WeatherDisplay:10.37,2013-02-15 16:19:00,
2013-02-15 10:20:00,18.8,10.6,30.16,WNW,287,3.5,4.6,70,0.00,CLR,,0.00,WeatherDisplay:10.37,2013-02-15 16:20:00,
2013-02-15 10:21:00,18.8,10.6,30.16,WNW,302,3.2,4.6,70,0.00,CLR,,0.00,WeatherDisplay:10.37,2013-02-15 16:21:00,
2013-02-15 10:23:00,18.8,10.6,30.16,NNW,342,3.6,8.1,70,0.00,CLR,,0.00,WeatherDisplay:10.37,2013-02-15 16:23:00,
2013-02-15 10:24:00,19.0,10.8,30.15,NW,316,4.1,6.9,70,0.00,CLR,,0.00,WeatherDisplay:10.37,2013-02-15 16:24:00,
2013-02-15 10:25:00,19.0,10.5,30.15,WNW,295,4.1,6.9,69,0.00,CLR,,0.00,WeatherDisplay:10.37,2013-02-15 16:25:00,
2013-02-15 10:26:00,19.1,10.6,30.15,WNW,282,3.7,6.9,69,0.00,CLR,,0.00,WeatherDisplay:10.37,2013-02-15 16:26:00,
2013-02-15 10:28:00,19.1,10.9,30.15,ESE,104,2.3,6.9,70,0.00,CLR,,0.00,WeatherDisplay:10.37,2013-02-15 16:28:00,
2013-02-15 10:29:00,19.2,10.7,30.15,NNW,346,3.8,6.9,69,0.00,CLR,,0.00,WeatherDisplay:10.37,2013-02-15 16:29:00,
2013-02-15 10:31:00,19.3,10.8,30.16,West,260,4.8,6.9,69,0.00,CLR,,0.00,WeatherDisplay:10.37,2013-02-15 16:31:00,
2013-02-15 10:33:00,19.3,10.8,30.16,WNW,292,4.7,4.7,69,0.00,CLR,,0.00,WeatherDisplay:10.37,2013-02-15 16:33:00,
2013-02-15 10:34:00,19.5,11.0,30.16,NNW,330,4.6,5.8,69,0.00,CLR,,0.00,WeatherDisplay:10.37,2013-02-15 16:34:00,
2013-02-15 10:36:00,19.5,11.0,30.16,NNW,330,3.4,5.8,69,0.00,CLR,,0.00,WeatherDisplay:10.37,2013-02-15 16:36:00,
2013-02-15 10:39:00,19.6,10.7,30.15,WNW,292,4.0,6.9,68,0.00,CLR,,0.00,WeatherDisplay:10.37,2013-02-15 16:39:00,
2013-02-15 10:41:00,19.6,10.7,30.15,West,281,5.1,6.9,68,0.00,CLR,,0.00,WeatherDisplay:10.37,2013-02-15 16:41:00,
2013-02-15 10:42:00,19.8,10.9,30.15,WNW,292,5.2,8.1,68,0.00,CLR,,0.00,WeatherDisplay:10.37,2013-02-15 16:42:00,
2013-02-15 10:44:00,19.7,10.8,30.15,NW,304,3.9,6.9,68,0.00,CLR,,0.00,WeatherDisplay:10.37,2013-02-15 16:44:00,
2013-02-15 10:46:00,19.8,10.6,30.16,West,280,5.6,8.1,67,0.00,CLR,,0.00,WeatherDisplay:10.37,2013-02-15 16:46:00,
2013-02-15 10:47:00,19.8,10.6,30.15,NW,316,5.2,6.9,67,0.00,CLR,,0.00,WeatherDisplay:10.37,2013-02-15 16:47:00,
2013-02-15 10:49:00,19.7,10.5,30.16,WNW,288,4.9,6.9,67,0.00,CLR,,0.00,WeatherDisplay:10.37,2013-02-15 16:49:00,
2013-02-15 10:50:00,19.7,10.5,30.16,NW,308,4.1,6.9,67,0.00,CLR,,0.00,WeatherDisplay:10.37,2013-02-15 16:50:00,
2013-02-15 10:51:00,19.8,10.6,30.16,WNW,284,5.7,8.1,67,0.00,CLR,,0.00,WeatherDisplay:10.37,2013-02-15 16:51:00,
2013-02-15 10:52:00,19.8,10.6,30.16,WNW,298,5.8,6.9,67,0.00,CLR,,0.00,WeatherDisplay:10.37,2013-02-15 16:52:00,
2013-02-15 10:54:00,19.8,10.6,30.16,West,271,4.2,4.6,67,0.00,CLR,,0.00,WeatherDisplay:10.37,2013-02-15 16:54:00,
2013-02-15 10:55:00,19.9,11.0,30.16,West,275,3.4,6.9,68,0.00,CLR,,0.00,WeatherDisplay:10.37,2013-02-15 16:55:00,
2013-02-15 10:56:00,19.9,11.0,30.16,NW,304,3.7,6.9,68,0.00,CLR,,0.00,WeatherDisplay:10.37,2013-02-15 16:56:00,
2013-02-15 10:57:00,20.0,11.1,30.16,NW,323,4.3,6.9,68,0.00,CLR,,0.00,WeatherDisplay:10.37,2013-02-15 16:57:00,
2013-02-15 10:59:00,20.0,11.1,30.16,North,360,3.9,5.8,68,0.00,CLR,,0.00,WeatherDisplay:10.37,2013-02-15 16:59:00,
2013-02-15 11:00:00,20.1,10.9,30.15,WNW,289,6.8,8.1,67,0.00,CLR,,0.00,WeatherDisplay:10.37,2013-02-15 17:00:00,
2013-02-15 11:02:00,20.2,11.0,30.15,WNW,285,4.1,7.1,67,0.00,CLR,,0.00,WeatherDisplay:10.37,2013-02-15 17:02:00,
2013-02-15 11:04:00,20.3,11.1,30.15,West,270,5.1,6.9,67,0.00,CLR,,0.00,WeatherDisplay:10.37,2013-02-15 17:04:00,
2013-02-15 11:05:00,20.3,11.1,30.15,West,264,4.3,6.9,67,0.00,CLR,,0.00,WeatherDisplay:10.37,2013-02-15 17:05:00,
2013-02-15 11:07:00,20.3,10.7,30.15,West,271,5.4,6.9,66,0.00,CLR,,0.00,WeatherDisplay:10.37,2013-02-15 17:07:00,
2013-02-15 11:09:00,20.3,11.1,30.15,West,281,2.9,6.9,67,0.00,CLR,,0.00,WeatherDisplay:10.37,2013-02-15 17:09:00,
2013-02-15 11:11:00,20.4,11.2,30.15,North,8,4.3,5.8,67,0.00,CLR,,0.00,WeatherDisplay:10.37,2013-02-15 17:11:00,
2013-02-15 11:12:00,20.4,11.2,30.15,NNW,344,2.0,4.6,67,0.00,CLR,,0.00,WeatherDisplay:10.37,2013-02-15 17:12:00,
2013-02-15 11:14:00,20.6,11.4,30.15,NW,304,4.4,6.9,67,0.00,CLR,,0.00,WeatherDisplay:10.37,2013-02-15 17:14:00,
2013-02-15 11:16:00,20.7,11.5,30.15,WNW,294,2.1,3.7,67,0.00,CLR,,0.00,WeatherDisplay:10.37,2013-02-15 17:16:00,
2013-02-15 11:17:00,20.7,11.5,30.15,WNW,288,3.7,6.3,67,0.00,CLR,,0.00,WeatherDisplay:10.37,2013-02-15 17:17:00,
2013-02-15 11:18:00,20.8,11.6,30.15,WSW,257,3.9,6.9,67,0.00,CLR,,0.00,WeatherDisplay:10.37,2013-02-15 17:18:00,
2013-02-15 11:19:00,20.9,11.7,30.15,WSW,244,2.5,6.9,67,0.00,CLR,,0.00,WeatherDisplay:10.37,2013-02-15 17:19:00,
2013-02-15 11:21:00,20.9,11.7,30.15,WNW,284,4.3,5.8,67,0.00,CLR,,0.00,WeatherDisplay:10.37,2013-02-15 17:21:00,
2013-02-15 11:22:00,21.0,11.8,30.15,WNW,296,4.1,6.9,67,0.00,CLR,,0.00,WeatherDisplay:10.37,2013-02-15 17:22:00,
2013-02-15 11:23:00,21.0,11.8,30.15,WNW,287,4.0,6.9,67,0.00,CLR,,0.00,WeatherDisplay:10.37,2013-02-15 17:23:00,
2013-02-15 11:25:00,21.1,11.5,30.15,NW,306,5.3,6.9,66,0.00,CLR,,0.00,WeatherDisplay:10.37,2013-02-15 17:25:00,
2013-02-15 11:26:00,21.2,11.6,30.15,WSW,258,5.5,8.1,66,0.00,CLR,,0.00,WeatherDisplay:10.37,2013-02-15 17:26:00,
2013-02-15 11:27:00,21.3,11.7,30.15,WNW,287,5.0,5.8,66,0.00,CLR,,0.00,WeatherDisplay:10.37,2013-02-15 17:27:00,
2013-02-15 11:29:00,21.5,11.9,30.15,NW,304,4.8,6.9,66,0.00,CLR,,0.00,WeatherDisplay:10.37,2013-02-15 17:29:00,
2013-02-15 11:30:00,21.5,11.5,30.15,West,280,4.3,6.9,65,0.00,CLR,,0.00,WeatherDisplay:10.37,2013-02-15 17:30:00,
2013-02-15 11:31:00,21.6,12.0,30.15,WNW,292,4.7,6.9,66,0.00,CLR,,0.00,WeatherDisplay:10.37,2013-02-15 17:31:00,
2013-02-15 11:32:00,21.7,11.7,30.15,NNW,335,5.3,8.1,65,0.00,CLR,,0.00,WeatherDisplay:10.37,2013-02-15 17:32:00,
2013-02-15 11:34:00,21.7,11.7,30.15,NNW,330,5.6,6.9,65,0.00,CLR,,0.00,WeatherDisplay:10.37,2013-02-15 17:34:00,
2013-02-15 11:35:00,21.8,11.8,30.15,NW,322,4.3,8.1,65,0.00,CLR,,0.00,WeatherDisplay:10.37,2013-02-15 17:35:00,
2013-02-15 11:36:00,21.8,11.5,30.15,NW,308,3.9,6.9,64,0.00,CLR,,0.00,WeatherDisplay:10.37,2013-02-15 17:36:00,
2013-02-15 11:38:00,21.8,11.8,30.15,WNW,291,3.3,4.6,65,0.00,CLR,,0.00,WeatherDisplay:10.37,2013-02-15 17:38:00,
2013-02-15 11:39:00,22.0,12.0,30.15,NNW,343,4.5,6.9,65,0.00,CLR,,0.00,WeatherDisplay:10.37,2013-02-15 17:39:00,
2013-02-15 11:40:00,22.0,12.0,30.15,WNW,294,3.3,5.8,65,0.00,CLR,,0.00,WeatherDisplay:10.37,2013-02-15 17:40:00,
2013-02-15 11:41:00,22.0,12.0,30.15,WNW,289,3.9,5.8,65,0.00,CLR,,0.00,WeatherDisplay:10.37,2013-02-15 17:41:00,
2013-02-15 11:43:00,22.2,12.2,30.15,WNW,289,2.3,4.8,65,0.00,CLR,,0.00,WeatherDisplay:10.37,2013-02-15 17:43:00,
2013-02-15 11:44:00,22.2,12.6,30.15,WNW,284,3.2,4.6,66,0.00,CLR,,0.00,WeatherDisplay:10.37,2013-02-15 17:44:00,
2013-02-15 11:45:00,22.4,12.4,30.15,WNW,301,4.8,8.1,65,0.00,CLR,,0.00,WeatherDisplay:10.37,2013-02-15 17:45:00,
2013-02-15 11:46:00,22.4,12.4,30.15,West,272,3.6,6.9,65,0.00,CLR,,0.00,WeatherDisplay:10.37,2013-02-15 17:46:00,
2013-02-15 11:48:00,22.4,12.4,30.15,West,277,3.4,6.9,65,0.00,CLR,,0.00,WeatherDisplay:10.37,2013-02-15 17:48:00,
2013-02-15 11:49:00,22.6,12.6,30.15,WSW,243,4.1,8.2,65,0.00,CLR,,0.00,WeatherDisplay:10.37,2013-02-15 17:49:00,
2013-02-15 11:50:00,22.6,12.6,30.15,WNW,285,5.2,8.1,65,0.00,CLR,,0.00,WeatherDisplay:10.37,2013-02-15 17:50:00,
2013-02-15 11:51:00,22.6,12.6,30.15,WSW,248,4.1,6.9,65,0.00,CLR,,0.00,WeatherDisplay:10.37,2013-02-15 17:51:00,
2013-02-15 11:53:00,23.0,13.0,30.15,South,188,2.9,8.1,65,0.00,CLR,,0.00,WeatherDisplay:10.37,2013-02-15 17:53:00,
2013-02-15 11:54:00,23.2,13.2,30.15,WSW,253,4.0,9.3,65,0.00,CLR,,0.00,WeatherDisplay:10.37,2013-02-15 17:54:00,
2013-02-15 11:55:00,23.1,12.7,30.15,WNW,282,7.0,9.2,64,0.00,CLR,,0.00,WeatherDisplay:10.37,2013-02-15 17:55:00,
2013-02-15 11:56:00,23.2,12.8,30.15,West,277,6.9,11.5,64,0.00,CLR,,0.00,WeatherDisplay:10.37,2013-02-15 17:56:00,
2013-02-15 11:58:00,23.3,12.9,30.15,North,357,2.6,5.8,64,0.00,CLR,,0.00,WeatherDisplay:10.37,2013-02-15 17:58:00,
2013-02-15 11:59:00,23.3,12.9,30.15,North,359,2.0,5.8,64,0.00,CLR,,0.00,WeatherDisplay:10.37,2013-02-15 17:59:00,
2013-02-15 12:00:00,23.3,12.9,30.14,North,354,4.5,5.3,64,0.00,CLR,,0.00,WeatherDisplay:10.37,2013-02-15 18:00:00,
2013-02-15 12:01:00,23.3,12.9,30.14,NNW,337,5.3,8.1,64,0.00,CLR,,0.00,WeatherDisplay:10.37,2013-02-15 18:01:00,
2013-02-15 12:04:00,23.2,12.8,30.14,WNW,284,3.5,5.8,64,0.00,CLR,,0.00,WeatherDisplay:10.37,2013-02-15 18:04:00,
2013-02-15 12:05:00,23.3,12.9,30.14,SW,233,4.1,5.8,64,0.00,CLR,,0.00,WeatherDisplay:10.37,2013-02-15 18:05:00,
2013-02-15 12:06:00,23.3,12.9,30.14,WNW,294,6.4,9.2,64,0.00,CLR,,0.00,WeatherDisplay:10.37,2013-02-15 18:06:00,
2013-02-15 12:09:00,23.2,12.5,30.14,West,261,4.3,6.6,63,0.00,CLR,,0.00,WeatherDisplay:10.37,2013-02-15 18:09:00,
2013-02-15 12:10:00,23.2,12.5,30.14,WNW,287,4.5,6.9,63,0.00,CLR,,0.00,WeatherDisplay:10.37,2013-02-15 18:10:00,
2013-02-15 12:11:00,23.2,12.5,30.14,West,277,2.9,5.8,63,0.00,CLR,,0.00,WeatherDisplay:10.37,2013-02-15 18:11:00,
2013-02-15 12:12:00,23.3,12.6,30.14,West,272,5.1,8.1,63,0.00,CLR,,0.00,WeatherDisplay:10.37,2013-02-15 18:12:00,
2013-02-15 12:14:00,23.4,13.0,30.14,WNW,292,5.8,8.1,64,0.00,CLR,,0.00,WeatherDisplay:10.37,2013-02-15 18:14:00,
2013-02-15 12:15:00,23.4,13.0,30.14,WSW,248,5.6,8.8,64,0.00,CLR,,0.00,WeatherDisplay:10.37,2013-02-15 18:15:00,
2013-02-15 12:16:00,23.4,12.6,30.14,West,272,5.6,9.2,63,0.00,CLR,,0.00,WeatherDisplay:10.37,2013-02-15 18:16:00,
2013-02-15 12:17:00,23.4,12.6,30.14,WNW,288,4.9,8.1,63,0.00,CLR,,0.00,WeatherDisplay:10.37,2013-02-15 18:17:00,
2013-02-15 12:20:00,23.4,12.6,30.14,West,261,4.7,9.2,63,0.00,CLR,,0.00,WeatherDisplay:10.37,2013-02-15 18:20:00,
2013-02-15 12:21:00,23.4,12.6,30.14,WNW,302,4.6,8.1,63,0.00,CLR,,0.00,WeatherDisplay:10.37,2013-02-15 18:21:00,
2013-02-15 12:22:00,23.5,12.7,30.14,WNW,287,7.0,10.4,63,0.00,CLR,,0.00,WeatherDisplay:10.37,2013-02-15 18:22:00,
2013-02-15 12:25:00,23.4,12.6,30.14,WNW,285,3.2,5.8,63,0.00,CLR,,0.00,WeatherDisplay:10.37,2013-02-15 18:25:00,
2013-02-15 12:26:00,23.3,12.6,30.14,West,280,5.5,9.2,63,0.00,CLR,,0.00,WeatherDisplay:10.37,2013-02-15 18:26:00,
2013-02-15 12:27:00,23.5,12.7,30.14,West,278,5.7,9.2,63,0.00,CLR,,0.00,WeatherDisplay:10.37,2013-02-15 18:27:00,
2013-02-15 12:30:00,23.6,12.8,30.14,WSW,240,3.7,8.1,63,0.00,CLR,,0.00,WeatherDisplay:10.37,2013-02-15 18:30:00,
2013-02-15 12:31:00,23.6,12.8,30.14,West,274,4.3,6.9,63,0.00,CLR,,0.00,WeatherDisplay:10.37,2013-02-15 18:31:00,
2013-02-15 12:32:00,23.8,13.0,30.14,West,265,3.4,4.6,63,0.00,CLR,,0.00,WeatherDisplay:10.37,2013-02-15 18:32:00,
2013-02-15 12:35:00,23.8,12.3,30.13,NW,320,5.0,9.2,61,0.00,CLR,,0.00,WeatherDisplay:10.37,2013-02-15 18:35:00,
2013-02-15 12:36:00,23.9,12.8,30.13,WNW,285,3.6,5.8,62,0.00,CLR,,0.00,WeatherDisplay:10.37,2013-02-15 18:36:00,
2013-02-15 12:38:00,24.0,12.9,30.13,WNW,289,7.0,10.4,62,0.00,CLR,,0.00,WeatherDisplay:10.37,2013-02-15 18:38:00,
2013-02-15 12:40:00,24.1,12.9,30.13,WNW,284,2.9,6.9,62,0.00,CLR,,0.00,WeatherDisplay:10.37,2013-02-15 18:40:00,
2013-02-15 12:41:00,24.2,13.0,30.13,West,280,3.0,4.6,62,0.00,CLR,,0.00,WeatherDisplay:10.37,2013-02-15 18:41:00,
2013-02-15 12:43:00,24.3,13.1,30.13,NW,322,6.3,9.2,62,0.00,CLR,,0.00,WeatherDisplay:10.37,2013-02-15 18:43:00,
2013-02-15 12:45:00,24.4,12.5,30.13,WSW,241,8.0,10.4,60,0.00,CLR,,0.00,WeatherDisplay:10.37,2013-02-15 18:45:00,
2013-02-15 12:46:00,24.4,12.5,30.13,West,278,5.1,15.0,60,0.00,CLR,,0.00,WeatherDisplay:10.37,2013-02-15 18:46:00,
2013-02-15 12:47:00,24.5,12.6,30.13,WSW,240,5.8,10.4,60,0.00,CLR,,0.00,WeatherDisplay:10.37,2013-02-15 18:47:00,
2013-02-15 12:48:00,24.6,12.7,30.13,WNW,302,3.3,8.1,60,0.00,CLR,,0.00,WeatherDisplay:10.37,2013-02-15 18:48:00,
2013-02-15 12:51:00,24.8,12.9,30.13,NNW,342,3.2,5.8,60,0.00,CLR,,0.00,WeatherDisplay:10.37,2013-02-15 18:51:00,
2013-02-15 12:52:00,24.8,12.9,30.13,WNW,298,3.3,6.9,60,0.00,CLR,,0.00,WeatherDisplay:10.37,2013-02-15 18:52:00,
2013-02-15 12:53:00,24.8,12.9,30.13,WNW,285,6.6,10.4,60,0.00,CLR,,0.00,WeatherDisplay:10.37,2013-02-15 18:53:00,
2013-02-15 12:56:00,25.3,13.0,30.13,WNW,287,5.3,6.9,59,0.00,CLR,,0.00,WeatherDisplay:10.37,2013-02-15 18:56:00,
2013-02-15 12:57:00,25.3,13.3,30.13,WNW,298,4.0,5.8,60,0.00,CLR,,0.00,WeatherDisplay:10.37,2013-02-15 18:57:00,
2013-02-15 12:58:00,25.4,13.1,30.13,West,263,4.2,5.8,59,0.00,CLR,,0.00,WeatherDisplay:10.37,2013-02-15 18:58:00,
2013-02-15 13:01:00,25.5,13.1,30.13,NW,311,4.9,8.1,59,0.00,CLR,,0.00,WeatherDisplay:10.37,2013-02-15 19:01:00,
2013-02-15 13:02:00,25.5,13.1,30.13,West,281,4.4,6.9,59,0.00,CLR,,0.00,WeatherDisplay:10.37,2013-02-15 19:02:00,
2013-02-15 13:03:00,25.6,12.9,30.13,WNW,302,7.3,11.5,58,0.00,CLR,,0.00,WeatherDisplay:10.37,2013-02-15 19:03:00,
2013-02-15 13:06:00,25.7,12.6,30.13,WNW,299,5.9,9.2,57,0.00,CLR,,0.00,WeatherDisplay:10.37,2013-02-15 19:06:00,
2013-02-15 13:07:00,25.6,12.9,30.13,WNW,284,3.6,6.9,58,0.00,CLR,,0.00,WeatherDisplay:10.37,2013-02-15 19:07:00,
2013-02-15 13:08:00,25.6,12.9,30.13,NNW,333,5.2,6.1,58,0.00,CLR,,0.00,WeatherDisplay:10.37,2013-02-15 19:08:00,
2013-02-15 13:11:00,25.7,12.9,30.12,West,274,6.0,8.1,58,0.00,CLR,,0.00,WeatherDisplay:10.37,2013-02-15 19:11:00,
2013-02-15 13:12:00,25.6,12.9,30.12,WSW,257,4.7,9.2,58,0.00,CLR,,0.00,WeatherDisplay:10.37,2013-02-15 19:12:00,
2013-02-15 13:14:00,25.8,13.0,30.13,West,275,7.4,9.2,58,0.00,CLR,,0.00,WeatherDisplay:10.37,2013-02-15 19:14:00,
2013-02-15 13:16:00,25.8,12.2,30.13,WNW,284,6.7,10.4,56,0.00,CLR,,0.00,WeatherDisplay:10.37,2013-02-15 19:16:00,
2013-02-15 13:17:00,25.7,12.2,30.12,WNW,302,6.1,8.1,56,0.00,CLR,,0.00,WeatherDisplay:10.37,2013-02-15 19:17:00,
2013-02-15 13:19:00,25.6,12.1,30.12,WNW,301,5.4,10.4,56,0.00,CLR,,0.00,WeatherDisplay:10.37,2013-02-15 19:19:00,
2013-02-15 13:21:00,25.6,12.5,30.12,West,271,4.4,9.2,57,0.00,CLR,,0.00,WeatherDisplay:10.37,2013-02-15 19:21:00,
2013-02-15 13:22:00,25.6,12.5,30.12,West,278,4.5,6.9,57,0.00,CLR,,0.00,WeatherDisplay:10.37,2013-02-15 19:22:00,
2013-02-15 13:24:00,25.7,12.9,30.12,West,260,4.1,10.4,58,0.00,CLR,,0.00,WeatherDisplay:10.37,2013-02-15 19:24:00,
2013-02-15 13:26:00,25.9,12.7,30.12,WSW,258,6.3,9.2,57,0.00,CLR,,0.00,WeatherDisplay:10.37,2013-02-15 19:26:00,
2013-02-15 13:27:00,26.0,12.8,30.12,WNW,285,6.7,8.1,57,0.00,CLR,,0.00,WeatherDisplay:10.37,2013-02-15 19:27:00,
2013-02-15 13:29:00,26.0,12.4,30.12,West,277,4.6,8.1,56,0.00,CLR,,0.00,WeatherDisplay:10.37,2013-02-15 19:29:00,
2013-02-15 13:31:00,26.0,12.4,30.12,West,275,6.7,10.4,56,0.00,CLR,,0.00,WeatherDisplay:10.37,2013-02-15 19:31:00,
2013-02-15 13:32:00,26.0,12.8,30.12,WNW,301,5.3,10.4,57,0.00,CLR,,0.00,WeatherDisplay:10.37,2013-02-15 19:32:00,
2013-02-15 13:34:00,26.0,12.4,30.12,West,281,5.0,6.9,56,0.00,CLR,,0.00,WeatherDisplay:10.37,2013-02-15 19:34:00,
2013-02-15 13:37:00,26.1,12.5,30.12,West,280,5.4,8.1,56,0.00,CLR,,0.00,WeatherDisplay:10.37,2013-02-15 19:37:00,
2013-02-15 13:40:00,26.2,13.0,30.12,West,265,3.4,7.0,57,0.00,CLR,,0.00,WeatherDisplay:10.37,2013-02-15 19:40:00,
2013-02-15 13:42:00,26.5,12.9,30.12,WNW,289,7.4,9.0,56,0.00,CLR,,0.00,WeatherDisplay:10.37,2013-02-15 19:42:00,
2013-02-15 13:45:00,26.5,12.5,30.12,NW,311,4.1,5.8,55,0.00,CLR,,0.00,WeatherDisplay:10.37,2013-02-15 19:45:00,
2013-02-15 13:47:00,26.6,12.6,30.11,WNW,301,6.3,8.1,55,0.00,CLR,,0.00,WeatherDisplay:10.37,2013-02-15 19:47:00,
2013-02-15 13:48:00,26.6,12.6,30.11,WNW,295,6.4,10.4,55,0.00,CLR,,0.00,WeatherDisplay:10.37,2013-02-15 19:48:00,
2013-02-15 13:50:00,26.6,12.6,30.11,NW,305,6.9,10.4,55,0.00,CLR,,0.00,WeatherDisplay:10.37,2013-02-15 19:50:00,
2013-02-15 13:53:00,26.7,12.7,30.12,West,271,5.7,9.6,55,0.00,CLR,,0.00,WeatherDisplay:10.37,2013-02-15 19:53:00,
2013-02-15 13:55:00,26.8,13.2,30.11,WNW,294,5.8,6.9,56,0.00,CLR,,0.00,WeatherDisplay:10.37,2013-02-15 19:55:00,
2013-02-15 13:58:00,26.8,13.2,30.11,West,278,6.1,9.2,56,0.00,CLR,,0.00,WeatherDisplay:10.37,2013-02-15 19:58:00,
2013-02-15 14:00:00,26.9,12.9,30.11,West,263,7.8,9.2,55,0.00,CLR,,0.00,WeatherDisplay:10.37,2013-02-15 20:00:00,
2013-02-15 14:03:00,27.0,13.0,30.11,WNW,295,4.4,6.9,55,0.00,CLR,,0.00,WeatherDisplay:10.37,2013-02-15 20:03:00,
2013-02-15 14:05:00,27.2,13.1,30.11,NW,315,6.9,11.5,55,0.00,CLR,,0.00,WeatherDisplay:10.37,2013-02-15 20:05:00,
2013-02-15 14:08:00,27.1,12.2,30.11,West,261,8.9,9.7,53,0.00,CLR,,0.00,WeatherDisplay:10.37,2013-02-15 20:08:00,
2013-02-15 14:09:00,27.1,12.2,30.11,WSW,246,9.1,11.5,53,0.00,CLR,,0.00,WeatherDisplay:10.37,2013-02-15 20:09:00,
2013-02-15 14:10:00,27.0,12.1,30.11,WNW,296,5.9,10.4,53,0.00,CLR,,0.00,WeatherDisplay:10.37,2013-02-15 20:10:00,
2013-02-15 14:14:00,26.8,11.9,30.11,West,281,5.9,8.1,53,0.00,CLR,,0.00,WeatherDisplay:10.37,2013-02-15 20:14:00,
2013-02-15 14:15:00,26.8,12.4,30.11,WSW,258,4.7,7.3,54,0.00,CLR,,0.00,WeatherDisplay:10.37,2013-02-15 20:15:00,
2013-02-15 14:19:00,26.6,12.2,30.11,WNW,288,5.3,8.1,54,0.00,CLR,,0.00,WeatherDisplay:10.37,2013-02-15 20:19:00,
2013-02-15 14:20:00,26.5,11.2,30.11,NW,315,6.4,11.5,52,0.00,CLR,,0.00,WeatherDisplay:10.37,2013-02-15 20:20:00,
2013-02-15 14:24:00,26.6,11.7,30.11,WSW,258,3.9,8.1,53,0.00,CLR,,0.00,WeatherDisplay:10.37,2013-02-15 20:24:00,
2013-02-15 14:26:00,26.7,11.8,30.11,West,274,8.0,10.4,53,0.00,CLR,,0.00,WeatherDisplay:10.37,2013-02-15 20:26:00,
2013-02-15 14:29:00,26.7,11.4,30.11,WSW,253,6.6,11.5,52,0.00,CLR,,0.00,WeatherDisplay:10.37,2013-02-15 20:29:00,
2013-02-15 14:30:00,26.7,11.8,30.11,West,267,6.1,8.1,53,0.00,CLR,,0.00,WeatherDisplay:10.37,2013-02-15 20:30:00,
2013-02-15 14:31:00,26.6,11.3,30.11,West,261,5.9,8.1,52,0.00,CLR,,0.00,WeatherDisplay:10.37,2013-02-15 20:31:00,
2013-02-15 14:34:00,26.8,11.9,30.11,West,268,5.6,8.1,53,0.00,CLR,,0.00,WeatherDisplay:10.37,2013-02-15 20:34:00,
2013-02-15 14:35:00,26.9,12.0,30.11,WNW,294,4.2,8.1,53,0.00,CLR,,0.00,WeatherDisplay:10.37,2013-02-15 20:35:00,
2013-02-15 14:36:00,27.0,12.1,30.11,WSW,253,7.3,8.1,53,0.00,CLR,,0.00,WeatherDisplay:10.37,2013-02-15 20:36:00,
2013-02-15 14:39:00,27.0,12.1,30.11,WNW,294,4.6,10.4,53,0.00,CLR,,0.00,WeatherDisplay:10.37,2013-02-15 20:39:00,
2013-02-15 14:40:00,27.1,12.2,30.11,West,268,5.4,10.4,53,0.00,CLR,,0.00,WeatherDisplay:10.37,2013-02-15 20:40:00,
2013-02-15 14:41:00,27.1,12.2,30.11,West,267,6.6,9.2,53,0.00,CLR,,0.00,WeatherDisplay:10.37,2013-02-15 20:41:00,
2013-02-15 14:44:00,27.1,12.6,30.11,West,264,4.6,10.4,54,0.00,CLR,,0.00,WeatherDisplay:10.37,2013-02-15 20:44:00,
2013-02-15 14:46:00,27.2,12.3,30.11,West,260,5.8,10.4,53,0.00,CLR,,0.00,WeatherDisplay:10.37,2013-02-15 20:46:00,
2013-02-15 14:47:00,27.1,12.6,30.11,West,281,4.0,6.9,54,0.00,CLR,,0.00,WeatherDisplay:10.37,2013-02-15 20:47:00,
2013-02-15 14:50:00,27.2,12.7,30.11,West,274,3.6,4.6,54,0.00,CLR,,0.00,WeatherDisplay:10.37,2013-02-15 20:50:00,
2013-02-15 14:51:00,27.2,12.7,30.11,West,260,4.4,8.6,54,0.00,CLR,,0.00,WeatherDisplay:10.37,2013-02-15 20:51:00,
2013-02-15 14:52:00,27.2,12.7,30.11,WSW,256,8.4,11.8,54,0.00,CLR,,0.00,WeatherDisplay:10.37,2013-02-15 20:52:00,
2013-02-15 14:55:00,27.1,12.6,30.11,NW,313,2.9,5.8,54,0.00,CLR,,0.00,WeatherDisplay:10.37,2013-02-15 20:55:00,
2013-02-15 14:56:00,27.1,12.6,30.11,West,274,3.8,5.8,54,0.00,CLR,,0.00,WeatherDisplay:10.37,2013-02-15 20:56:00,
2013-02-15 14:57:00,27.2,12.7,30.11,West,264,4.5,9.4,54,0.00,CLR,,0.00,WeatherDisplay:10.37,2013-02-15 20:57:00,
2013-02-15 15:00:00,27.1,12.6,30.11,WNW,285,4.9,9.2,54,0.00,CLR,,0.00,WeatherDisplay:10.37,2013-02-15 21:00:00,
2013-02-15 15:01:00,27.1,12.6,30.11,SW,230,3.9,9.2,54,0.00,CLR,,0.00,WeatherDisplay:10.37,2013-02-15 21:01:00,
2013-02-15 15:02:00,27.0,13.0,30.12,WNW,294,4.9,8.1,55,0.00,CLR,,0.00,WeatherDisplay:10.37,2013-02-15 21:02:00,
2013-02-15 15:05:00,27.0,12.5,30.12,WNW,292,3.8,6.9,54,0.00,CLR,,0.00,WeatherDisplay:10.37,2013-02-15 21:05:00,
2013-02-15 15:06:00,26.9,12.5,30.11,West,272,3.0,5.8,54,0.00,CLR,,0.00,WeatherDisplay:10.37,2013-02-15 21:06:00,
2013-02-15 15:07:00,26.9,12.9,30.12,West,281,0.8,5.5,55,0.00,CLR,,0.00,WeatherDisplay:10.37,2013-02-15 21:07:00,
2013-02-15 15:10:00,26.7,12.3,30.12,West,275,7.4,10.4,54,0.00,CLR,,0.00,WeatherDisplay:10.37,2013-02-15 21:10:00,
2013-02-15 15:11:00,26.6,12.2,30.12,West,260,6.0,10.4,54,0.00,CLR,,0.00,WeatherDisplay:10.37,2013-02-15 21:11:00,
2013-02-15 15:12:00,26.5,12.1,30.12,WSW,257,5.2,8.1,54,0.00,CLR,,0.00,WeatherDisplay:10.37,2013-02-15 21:12:00,
2013-02-15 15:16:00,26.1,12.1,30.12,SW,217,5.2,8.1,55,0.00,CLR,,0.00,WeatherDisplay:10.37,2013-02-15 21:16:00,
2013-02-15 15:17:00,25.9,11.9,30.12,West,264,4.5,6.9,55,0.00,CLR,,0.00,WeatherDisplay:10.37,2013-02-15 21:17:00,
2013-02-15 15:21:00,25.5,12.0,30.12,WNW,288,4.9,6.9,56,0.00,CLR,,0.00,WeatherDisplay:10.37,2013-02-15 21:21:00,
2013-02-15 15:22:00,25.4,11.9,30.12,WNW,284,4.2,5.8,56,0.00,CLR,,0.00,WeatherDisplay:10.37,2013-02-15 21:22:00,
2013-02-15 15:26:00,25.1,12.0,30.12,WNW,301,2.8,6.9,57,0.00,CLR,,0.00,WeatherDisplay:10.37,2013-02-15 21:26:00,
2013-02-15 15:27:00,25.0,11.9,30.12,WSW,250,6.4,9.2,57,0.00,CLR,,0.00,WeatherDisplay:10.37,2013-02-15 21:27:00,
2013-02-15 15:31:00,24.7,11.6,30.12,SSW,212,4.6,8.1,57,0.00,CLR,,0.00,WeatherDisplay:10.37,2013-02-15 21:31:00,
2013-02-15 15:32:00,24.7,11.6,30.12,West,264,5.0,7.2,57,0.00,CLR,,0.00,WeatherDisplay:10.37,2013-02-15 21:32:00,
2013-02-15 15:33:00,24.7,11.6,30.12,West,264,6.4,9.2,57,0.00,CLR,,0.00,WeatherDisplay:10.37,2013-02-15 21:33:00,
2013-02-15 15:36:00,24.5,11.4,30.12,West,274,5.4,9.2,57,0.00,CLR,,0.00,WeatherDisplay:10.37,2013-02-15 21:36:00,
2013-02-15 15:37:00,24.4,11.3,30.12,WNW,291,3.8,5.8,57,0.00,CLR,,0.00,WeatherDisplay:10.37,2013-02-15 21:37:00,
2013-02-15 15:38:00,24.4,11.3,30.12,WNW,287,4.6,5.8,57,0.00,CLR,,0.00,WeatherDisplay:10.37,2013-02-15 21:38:00,
2013-02-15 15:41:00,24.3,11.2,30.12,WNW,295,6.3,9.2,57,0.00,CLR,,0.00,WeatherDisplay:10.37,2013-02-15 21:41:00,
2013-02-15 15:42:00,24.2,11.1,30.12,West,261,5.8,11.5,57,0.00,CLR,,0.00,WeatherDisplay:10.37,2013-02-15 21:42:00,
2013-02-15 15:43:00,24.1,11.0,30.12,West,270,4.3,6.9,57,0.00,CLR,,0.00,WeatherDisplay:10.37,2013-02-15 21:43:00,
2013-02-15 15:46:00,24.0,11.0,30.12,WNW,294,4.4,8.1,57,0.00,CLR,,0.00,WeatherDisplay:10.37,2013-02-15 21:46:00,
2013-02-15 15:47:00,24.0,11.3,30.12,NW,315,4.8,6.9,58,0.00,CLR,,0.00,WeatherDisplay:10.37,2013-02-15 21:47:00,
2013-02-15 15:48:00,23.9,11.3,30.12,WNW,285,4.4,9.8,58,0.00,CLR,,0.00,WeatherDisplay:10.37,2013-02-15 21:48:00,
2013-02-15 15:51:00,23.8,11.2,30.12,West,277,2.8,5.8,58,0.00,CLR,,0.00,WeatherDisplay:10.37,2013-02-15 21:51:00,
2013-02-15 15:52:00,23.7,11.1,30.12,NW,311,4.4,4.9,58,0.00,CLR,,0.00,WeatherDisplay:10.37,2013-02-15 21:52:00,
2013-02-15 15:53:00,23.7,11.1,30.12,West,275,4.9,9.2,58,0.00,CLR,,0.00,WeatherDisplay:10.37,2013-02-15 21:53:00,
2013-02-15 15:56:00,23.5,10.9,30.12,WNW,294,5.4,6.9,58,0.00,CLR,,0.00,WeatherDisplay:10.37,2013-02-15 21:56:00,
2013-02-15 15:57:00,23.5,10.9,30.13,WSW,257,4.3,6.9,58,0.00,CLR,,0.00,WeatherDisplay:10.37,2013-02-15 21:57:00,
2013-02-15 15:58:00,23.4,10.8,30.13,West,278,4.4,5.8,58,0.00,CLR,,0.00,WeatherDisplay:10.37,2013-02-15 21:58:00,
2013-02-15 16:01:00,23.4,10.8,30.12,SW,227,6.0,9.2,58,0.00,CLR,,0.00,WeatherDisplay:10.37,2013-02-15 22:01:00,
2013-02-15 16:03:00,23.3,10.7,30.13,NW,312,3.9,6.9,58,0.00,CLR,,0.00,WeatherDisplay:10.37,2013-02-15 22:03:00,
2013-02-15 16:06:00,23.2,10.6,30.13,West,265,5.0,6.9,58,0.00,CLR,,0.00,WeatherDisplay:10.37,2013-02-15 22:06:00,
2013-02-15 16:08:00,23.2,10.6,30.13,NNW,337,4.8,6.9,58,0.00,CLR,,0.00,WeatherDisplay:10.37,2013-02-15 22:08:00,
2013-02-15 16:12:00,23.0,10.4,30.13,West,272,5.3,9.2,58,0.00,CLR,,0.00,WeatherDisplay:10.37,2013-02-15 22:12:00,
2013-02-15 16:13:00,23.0,10.4,30.13,NW,325,2.5,4.2,58,0.00,CLR,,0.00,WeatherDisplay:10.37,2013-02-15 22:13:00,
2013-02-15 16:14:00,22.9,10.3,30.13,NW,325,5.1,6.9,58,0.00,CLR,,0.00,WeatherDisplay:10.37,2013-02-15 22:14:00,
2013-02-15 16:17:00,22.7,10.1,30.13,NW,305,4.9,5.8,58,0.00,CLR,,0.00,WeatherDisplay:10.37,2013-02-15 22:17:00,
2013-02-15 16:18:00,22.8,10.2,30.13,NW,315,5.7,8.3,58,0.00,CLR,,0.00,WeatherDisplay:10.37,2013-02-15 22:18:00,
2013-02-15 16:19:00,22.7,10.1,30.13,NW,304,6.0,9.2,58,0.00,CLR,,0.00,WeatherDisplay:10.37,2013-02-15 22:19:00,
2013-02-15 16:23:00,22.6,10.0,30.13,WNW,298,5.7,8.1,58,0.00,CLR,,0.00,WeatherDisplay:10.37,2013-02-15 22:23:00,
2013-02-15 16:24:00,22.5,9.9,30.13,WNW,289,4.8,8.1,58,0.00,CLR,,0.00,WeatherDisplay:10.37,2013-02-15 22:24:00,
2013-02-15 16:28:00,22.3,10.1,30.13,WNW,287,5.4,10.4,59,0.00,CLR,,0.00,WeatherDisplay:10.37,2013-02-15 22:28:00,
2013-02-15 16:29:00,22.3,10.1,30.13,WSW,247,4.4,6.9,59,0.00,CLR,,0.00,WeatherDisplay:10.37,2013-02-15 22:29:00,
2013-02-15 16:33:00,22.2,10.0,30.13,West,275,3.0,8.1,59,0.00,CLR,,0.00,WeatherDisplay:10.37,2013-02-15 22:33:00,
2013-02-15 16:34:00,22.2,10.4,30.13,WNW,282,5.6,9.2,60,0.00,CLR,,0.00,WeatherDisplay:10.37,2013-02-15 22:34:00,
2013-02-15 16:38:00,22.0,10.2,30.13,West,281,5.6,8.1,60,0.00,CLR,,0.00,WeatherDisplay:10.37,2013-02-15 22:38:00,
2013-02-15 16:39:00,22.0,10.2,30.13,WNW,296,4.2,9.2,60,0.00,CLR,,0.00,WeatherDisplay:10.37,2013-02-15 22:39:00,
2013-02-15 16:43:00,21.9,10.5,30.13,West,275,4.7,8.1,61,0.00,CLR,,0.00,WeatherDisplay:10.37,2013-02-15 22:43:00,
2013-02-15 16:44:00,22.0,10.6,30.13,West,275,5.4,6.9,61,0.00,CLR,,0.00,WeatherDisplay:10.37,2013-02-15 22:44:00,
2013-02-15 16:48:00,21.8,10.4,30.13,NNW,333,5.0,6.9,61,0.00,CLR,,0.00,WeatherDisplay:10.37,2013-02-15 22:48:00,
2013-02-15 16:49:00,21.8,10.4,30.13,WNW,292,7.1,9.2,61,0.00,CLR,,0.00,WeatherDisplay:10.37,2013-02-15 22:49:00,
2013-02-15 16:53:00,21.6,10.2,30.13,West,281,3.2,9.2,61,0.00,CLR,,0.00,WeatherDisplay:10.37,2013-02-15 22:53:00,
2013-02-15 16:54:00,21.6,10.6,30.13,NW,306,5.5,9.2,62,0.00,CLR,,0.00,WeatherDisplay:10.37,2013-02-15 22:54:00,
2013-02-15 16:58:00,21.5,10.5,30.13,West,260,3.9,6.9,62,0.00,CLR,,0.00,WeatherDisplay:10.37,2013-02-15 22:58:00,
2013-02-15 17:00:00,21.4,10.4,30.14,NW,305,2.6,6.1,62,0.00,CLR,,0.00,WeatherDisplay:10.37,2013-02-15 23:00:00,
2013-02-15 17:04:00,21.1,10.1,30.14,West,270,5.8,8.5,62,0.00,CLR,,0.00,WeatherDisplay:10.37,2013-02-15 23:04:00,
2013-02-15 17:05:00,21.2,10.2,30.14,WNW,299,4.6,8.1,62,0.00,CLR,,0.00,WeatherDisplay:10.37,2013-02-15 23:05:00,
2013-02-15 17:09:00,21.1,10.5,30.14,NW,305,4.1,6.9,63,0.00,CLR,,0.00,WeatherDisplay:10.37,2013-02-15 23:09:00,
2013-02-15 17:10:00,21.0,10.4,30.14,WNW,282,3.8,5.8,63,0.00,CLR,,0.00,WeatherDisplay:10.37,2013-02-15 23:10:00,
2013-02-15 17:14:00,20.9,10.3,30.14,WNW,301,4.9,6.9,63,0.00,CLR,,0.00,WeatherDisplay:10.37,2013-02-15 23:14:00,
2013-02-15 17:15:00,20.8,10.2,30.14,WNW,289,5.6,6.9,63,0.00,CLR,,0.00,WeatherDisplay:10.37,2013-02-15 23:15:00,
2013-02-15 17:16:00,20.8,10.2,30.14,WSW,257,5.7,10.4,63,0.00,CLR,,0.00,WeatherDisplay:10.37,2013-02-15 23:16:00,
2013-02-15 17:19:00,20.5,9.9,30.14,NNW,339,3.7,5.8,63,0.00,CLR,,0.00,WeatherDisplay:10.37,2013-02-15 23:19:00,
2013-02-15 17:20:00,20.4,9.8,30.14,NW,306,4.2,9.3,63,0.00,CLR,,0.00,WeatherDisplay:10.37,2013-02-15 23:20:00,
2013-02-15 17:21:00,20.5,9.9,30.14,WNW,291,5.9,9.2,63,0.00,CLR,,0.00,WeatherDisplay:10.37,2013-02-15 23:21:00,
2013-02-15 17:24:00,20.2,10.0,30.14,NNW,333,3.6,6.9,64,0.00,CLR,,0.00,WeatherDisplay:10.37,2013-02-15 23:24:00,
2013-02-15 17:25:00,20.3,10.1,30.14,NNW,333,0.2,4.6,64,0.00,CLR,,0.00,WeatherDisplay:10.37,2013-02-15 23:25:00,
2013-02-15 17:26:00,20.0,9.8,30.14,NNW,333,0.0,0.0,64,0.00,CLR,,0.00,WeatherDisplay:10.37,2013-02-15 23:26:00,
2013-02-15 17:29:00,20.0,9.8,30.14,WNW,285,2.5,8.1,64,0.00,CLR,,0.00,WeatherDisplay:10.37,2013-02-15 23:29:00,
2013-02-15 17:30:00,20.0,9.8,30.14,NW,316,5.4,6.9,64,0.00,CLR,,0.00,WeatherDisplay:10.37,2013-02-15 23:30:00,
2013-02-15 17:31:00,19.9,9.7,30.14,WNW,299,4.5,8.1,64,0.00,CLR,,0.00,WeatherDisplay:10.37,2013-02-15 23:31:00,
2013-02-15 17:34:00,19.7,9.5,30.14,WNW,298,3.1,9.2,64,0.00,CLR,,0.00,WeatherDisplay:10.37,2013-02-15 23:34:00,
2013-02-15 17:35:00,19.6,9.4,30.14,WNW,301,4.2,6.9,64,0.00,CLR,,0.00,WeatherDisplay:10.37,2013-02-15 23:35:00,
2013-02-15 17:36:00,19.7,9.5,30.14,WNW,284,3.4,6.9,64,0.00,CLR,,0.00,WeatherDisplay:10.37,2013-02-15 23:36:00,
2013-02-15 17:40:00,19.4,9.2,30.14,WNW,302,4.9,8.1,64,0.00,CLR,,0.00,WeatherDisplay:10.37,2013-02-15 23:40:00,
2013-02-15 17:41:00,19.3,9.4,30.14,NW,311,6.0,10.4,65,0.00,CLR,,0.00,WeatherDisplay:10.37,2013-02-15 23:41:00,
2013-02-15 17:45:00,19.1,9.3,30.15,NNE,28,5.7,9.2,65,0.00,CLR,,0.00,WeatherDisplay:10.37,2013-02-15 23:45:00,
2013-02-15 17:46:00,19.1,9.3,30.15,WNW,301,5.1,8.1,65,0.00,CLR,,0.00,WeatherDisplay:10.37,2013-02-15 23:46:00,
2013-02-15 17:50:00,18.9,9.4,30.15,NW,318,4.0,5.8,66,0.00,CLR,,0.00,WeatherDisplay:10.37,2013-02-15 23:50:00,
2013-02-15 17:51:00,18.9,9.4,30.15,NW,322,3.1,5.8,66,0.00,CLR,,0.00,WeatherDisplay:10.37,2013-02-15 23:51:00,
2013-02-15 17:52:00,18.9,9.4,30.15,NNW,339,3.4,6.9,66,0.00,CLR,,0.00,WeatherDisplay:10.37,2013-02-15 23:52:00,
2013-02-15 17:55:00,18.7,9.2,30.15,NW,323,6.5,9.6,66,0.00,CLR,,0.00,WeatherDisplay:10.37,2013-02-15 23:55:00,
2013-02-15 17:56:00,18.6,9.1,30.15,NW,315,6.9,10.4,66,0.00,CLR,,0.00,WeatherDisplay:10.37,2013-02-15 23:56:00,
2013-02-15 17:57:00,18.5,9.0,30.15,NW,315,4.1,6.9,66,0.00,CLR,,0.00,WeatherDisplay:10.37,2013-02-15 23:57:00,
2013-02-15 18:00:00,18.5,9.0,30.15,NW,318,4.7,6.9,66,0.00,CLR,,0.00,WeatherDisplay:10.37,2013-02-16 00:00:00,
2013-02-15 18:01:00,18.5,9.0,30.15,NW,325,4.6,6.9,66,0.00,CLR,,0.00,WeatherDisplay:10.37,2013-02-16 00:01:00,
2013-02-15 18:02:00,18.3,8.8,30.15,WNW,298,3.7,6.9,66,0.00,CLR,,0.00,WeatherDisplay:10.37,2013-02-16 00:02:00,
2013-02-15 18:05:00,18.3,9.2,30.15,NW,325,3.3,8.3,67,0.00,CLR,,0.00,WeatherDisplay:10.37,2013-02-16 00:05:00,
2013-02-15 18:06:00,18.1,9.0,30.15,NNW,337,3.6,6.9,67,0.00,CLR,,0.00,WeatherDisplay:10.37,2013-02-16 00:06:00,
2013-02-15 18:07:00,18.2,9.1,30.15,WNW,299,4.0,8.1,67,0.00,CLR,,0.00,WeatherDisplay:10.37,2013-02-16 00:07:00,
2013-02-15 18:11:00,17.9,8.8,30.15,North,354,4.7,8.1,67,0.00,CLR,,0.00,WeatherDisplay:10.37,2013-02-16 00:11:00,
2013-02-15 18:12:00,17.8,8.7,30.15,NNW,328,6.6,10.4,67,0.00,CLR,,0.00,WeatherDisplay:10.37,2013-02-16 00:12:00,
2013-02-15 18:16:00,17.8,8.7,30.16,NW,322,5.9,10.4,67,0.00,CLR,,0.00,WeatherDisplay:10.37,2013-02-16 00:16:00,
2013-02-15 18:17:00,17.7,8.6,30.15,NW,305,5.7,9.2,67,0.00,CLR,,0.00,WeatherDisplay:10.37,2013-02-16 00:17:00,
2013-02-15 18:21:00,17.6,8.5,30.16,WNW,285,1.3,5.8,67,0.00,CLR,,0.00,WeatherDisplay:10.37,2013-02-16 00:21:00,
2013-02-15 18:22:00,17.5,8.4,30.16,WNW,299,3.1,4.6,67,0.00,CLR,,0.00,WeatherDisplay:10.37,2013-02-16 00:22:00,
2013-02-15 18:26:00,17.4,8.3,30.16,NW,308,4.2,7.5,67,0.00,CLR,,0.00,WeatherDisplay:10.37,2013-02-16 00:26:00,
2013-02-15 18:27:00,17.4,8.6,30.16,NW,313,4.8,9.2,68,0.00,CLR,,0.00,WeatherDisplay:10.37,2013-02-16 00:27:00,
2013-02-15 18:31:00,17.1,8.3,30.16,NW,318,3.3,6.5,68,0.00,CLR,,0.00,WeatherDisplay:10.37,2013-02-16 00:31:00,
2013-02-15 18:32:00,17.2,8.4,30.16,WNW,299,5.3,8.1,68,0.00,CLR,,0.00,WeatherDisplay:10.37,2013-02-16 00:32:00,
2013-02-15 18:36:00,17.1,8.3,30.16,WNW,301,4.0,8.1,68,0.00,CLR,,0.00,WeatherDisplay:10.37,2013-02-16 00:36:00,
2013-02-15 18:37:00,17.0,8.3,30.16,NW,308,2.6,8.1,68,0.00,CLR,,0.00,WeatherDisplay:10.37,2013-02-16 00:37:00,
2013-02-15 18:41:00,16.7,8.3,30.16,WNW,288,2.9,4.6,69,0.00,CLR,,0.00,WeatherDisplay:10.37,2013-02-16 00:41:00,
2013-02-15 18:42:00,16.8,8.4,30.16,WNW,301,5.4,6.9,69,0.00,CLR,,0.00,WeatherDisplay:10.37,2013-02-16 00:42:00,
2013-02-15 18:46:00,16.7,8.3,30.16,NNW,330,5.9,10.4,69,0.00,CLR,,0.00,WeatherDisplay:10.37,2013-02-16 00:46:00,
2013-02-15 18:48:00,16.6,8.2,30.16,NW,308,3.4,8.1,69,0.00,CLR,,0.00,WeatherDisplay:10.37,2013-02-16 00:48:00,
2013-02-15 18:51:00,16.5,8.1,30.16,WNW,294,1.4,4.9,69,0.00,CLR,,0.00,WeatherDisplay:10.37,2013-02-16 00:51:00,
2013-02-15 18:53:00,16.5,8.1,30.16,NW,316,2.7,5.8,69,0.00,CLR,,0.00,WeatherDisplay:10.37,2013-02-16 00:53:00,
2013-02-15 18:56:00,16.4,8.0,30.16,WNW,284,2.9,5.8,69,0.00,CLR,,0.00,WeatherDisplay:10.37,2013-02-16 00:56:00,
2013-02-15 18:57:00,16.3,7.9,30.16,NW,308,3.7,9.2,69,0.00,CLR,,0.00,WeatherDisplay:10.37,2013-02-16 00:57:00,
2013-02-15 18:58:00,16.3,8.2,30.16,WNW,292,4.9,7.7,70,0.00,CLR,,0.00,WeatherDisplay:10.37,2013-02-16 00:58:00,
2013-02-15 19:01:00,16.2,8.1,30.16,WNW,296,0.6,6.8,70,0.00,CLR,,0.00,WeatherDisplay:10.37,2013-02-16 01:01:00,
2013-02-15 19:02:00,16.2,8.1,30.16,West,281,3.7,6.9,70,0.00,CLR,,0.00,WeatherDisplay:10.37,2013-02-16 01:02:00,
2013-02-15 19:03:00,16.1,8.0,30.16,WNW,302,3.6,5.8,70,0.00,CLR,,0.00,WeatherDisplay:10.37,2013-02-16 01:03:00,
2013-02-15 19:07:00,16.1,8.0,30.16,NNW,335,2.3,3.5,70,0.00,CLR,,0.00,WeatherDisplay:10.37,2013-02-16 01:07:00,
2013-02-15 19:08:00,16.0,7.9,30.16,NNW,342,2.1,3.5,70,0.00,CLR,,0.00,WeatherDisplay:10.37,2013-02-16 01:08:00,
2013-02-15 19:12:00,15.9,7.8,30.16,West,271,0.1,2.3,70,0.00,CLR,,0.00,WeatherDisplay:10.37,2013-02-16 01:12:00,
2013-02-15 19:13:00,15.8,7.7,30.16,West,271,0.0,0.0,70,0.00,CLR,,0.00,WeatherDisplay:10.37,2013-02-16 01:13:00,
2013-02-15 19:17:00,15.5,7.5,30.16,NW,318,0.4,3.5,70,0.00,CLR,,0.00,WeatherDisplay:10.37,2013-02-16 01:17:00,
2013-02-15 19:18:00,15.6,7.9,30.16,NW,320,1.5,4.6,71,0.00,CLR,,0.00,WeatherDisplay:10.37,2013-02-16 01:18:00,
2013-02-15 19:22:00,15.4,7.7,30.16,North,8,3.2,4.6,71,0.00,CLR,,0.00,WeatherDisplay:10.37,2013-02-16 01:22:00,
2013-02-15 19:23:00,15.3,7.6,30.16,WNW,294,2.1,4.6,71,0.00,CLR,,0.00,WeatherDisplay:10.37,2013-02-16 01:23:00,
2013-02-15 19:27:00,15.2,7.5,30.16,WSW,250,1.4,4.6,71,0.00,CLR,,0.00,WeatherDisplay:10.37,2013-02-16 01:27:00,
2013-02-15 19:28:00,15.2,7.5,30.16,WNW,289,0.4,2.3,71,0.00,CLR,,0.00,WeatherDisplay:10.37,2013-02-16 01:28:00,
2013-02-15 19:29:00,15.2,7.5,30.16,WNW,289,0.1,1.1,71,0.00,CLR,,0.00,WeatherDisplay:10.37,2013-02-16 01:29:00,
2013-02-15 19:32:00,15.0,7.6,30.16,WNW,282,0.0,3.5,72,0.00,CLR,,0.00,WeatherDisplay:10.37,2013-02-16 01:32:00,
2013-02-15 19:33:00,15.1,7.7,30.16,NNW,339,0.4,3.2,72,0.00,CLR,,0.00,WeatherDisplay:10.37,2013-02-16 01:33:00,
2013-02-15 19:34:00,15.0,7.6,30.16,NW,308,3.1,5.8,72,0.00,CLR,,0.00,WeatherDisplay:10.37,2013-02-16 01:34:00,
2013-02-15 19:37:00,14.7,7.3,30.16,WNW,291,1.7,5.8,72,0.00,CLR,,0.00,WeatherDisplay:10.37,2013-02-16 01:37:00,
2013-02-15 19:38:00,14.9,7.5,30.16,NW,320,0.7,4.8,72,0.00,CLR,,0.00,WeatherDisplay:10.37,2013-02-16 01:38:00,
2013-02-15 19:39:00,14.7,7.3,30.16,WNW,291,3.6,7.2,72,0.00,CLR,,0.00,WeatherDisplay:10.37,2013-02-16 01:39:00,
2013-02-15 19:43:00,14.7,7.3,30.16,NNW,342,3.9,8.1,72,0.00,CLR,,0.00,WeatherDisplay:10.37,2013-02-16 01:43:00,
2013-02-15 19:44:00,14.7,7.3,30.16,West,280,1.2,4.6,72,0.00,CLR,,0.00,WeatherDisplay:10.37,2013-02-16 01:44:00,
2013-02-15 19:48:00,14.7,7.3,30.16,NW,316,0.9,5.1,72,0.00,CLR,,0.00,WeatherDisplay:10.37,2013-02-16 01:48:00,
2013-02-15 19:49:00,14.6,7.2,30.16,WNW,295,3.0,4.6,72,0.00,CLR,,0.00,WeatherDisplay:10.37,2013-02-16 01:49:00,
2013-02-15 19:54:00,14.6,7.2,30.16,WNW,287,2.2,5.8,72,0.00,CLR,,0.00,WeatherDisplay:10.37,2013-02-16 01:54:00,
2013-02-15 19:59:00,14.4,7.0,30.16,North,0,3.3,6.9,72,0.00,CLR,,0.00,WeatherDisplay:10.37,2013-02-16 01:59:00,
2013-02-15 20:00:00,14.3,6.9,30.16,WNW,289,4.4,7.8,72,0.00,CLR,,0.00,WeatherDisplay:10.37,2013-02-16 02:00:00,
2013-02-15 20:04:00,14.2,6.5,30.16,NE,38,1.6,4.6,71,0.00,CLR,,0.00,WeatherDisplay:10.37,2013-02-16 02:04:00,
2013-02-15 20:05:00,14.1,6.4,30.16,NW,320,1.5,4.6,71,0.00,CLR,,0.00,WeatherDisplay:10.37,2013-02-16 02:05:00,
2013-02-15 20:09:00,14.2,6.5,30.17,NW,308,0.9,4.6,71,0.00,CLR,,0.00,WeatherDisplay:10.37,2013-02-16 02:09:00,
2013-02-15 20:10:00,14.1,6.4,30.17,North,352,2.3,5.8,71,0.00,CLR,,0.00,WeatherDisplay:10.37,2013-02-16 02:10:00,
2013-02-15 20:14:00,14.1,6.7,30.17,NW,313,3.1,6.9,72,0.00,CLR,,0.00,WeatherDisplay:10.37,2013-02-16 02:14:00,
2013-02-15 20:15:00,14.1,6.7,30.17,NW,304,5.4,6.9,72,0.00,CLR,,0.00,WeatherDisplay:10.37,2013-02-16 02:15:00,
2013-02-15 20:16:00,13.9,6.5,30.16,NNW,337,4.6,9.2,72,0.00,CLR,,0.00,WeatherDisplay:10.37,2013-02-16 02:16:00,
2013-02-15 20:19:00,13.9,6.5,30.17,West,272,3.0,10.4,72,0.00,CLR,,0.00,WeatherDisplay:10.37,2013-02-16 02:19:00,
2013-02-15 20:20:00,13.9,6.5,30.17,North,360,3.6,9.8,72,0.00,CLR,,0.00,WeatherDisplay:10.37,2013-02-16 02:20:00,
2013-02-15 20:22:00,13.9,6.5,30.17,NW,309,3.1,6.9,72,0.00,CLR,,0.00,WeatherDisplay:10.37,2013-02-16 02:22:00,
2013-02-15 20:24:00,13.8,6.4,30.17,NNW,330,4.0,6.9,72,0.00,CLR,,0.00,WeatherDisplay:10.37,2013-02-16 02:24:00,
2013-02-15 20:25:00,13.7,6.3,30.17,WNW,302,3.8,5.8,72,0.00,CLR,,0.00,WeatherDisplay:10.37,2013-02-16 02:25:00,
2013-02-15 20:27:00,13.7,6.3,30.17,West,281,3.9,8.1,72,0.00,CLR,,0.00,WeatherDisplay:10.37,2013-02-16 02:27:00,
2013-02-15 20:29:00,13.7,6.3,30.17,NNE,27,3.4,6.9,72,0.00,CLR,,0.00,WeatherDisplay:10.37,2013-02-16 02:29:00,
2013-02-15 20:30:00,13.7,6.3,30.17,NW,320,3.9,6.9,72,0.00,CLR,,0.00,WeatherDisplay:10.37,2013-02-16 02:30:00,
2013-02-15 20:31:00,13.5,6.1,30.17,WNW,299,2.6,5.8,72,0.00,CLR,,0.00,WeatherDisplay:10.37,2013-02-16 02:31:00,
2013-02-15 20:32:00,13.6,6.2,30.17,NNW,344,3.4,4.6,72,0.00,CLR,,0.00,WeatherDisplay:10.37,2013-02-16 02:32:00,
2013-02-15 20:34:00,13.6,6.2,30.17,NW,315,3.7,6.9,72,0.00,CLR,,0.00,WeatherDisplay:10.37,2013-02-16 02:34:00,
2013-02-15 20:35:00,13.6,6.2,30.17,WNW,302,1.4,6.9,72,0.00,CLR,,0.00,WeatherDisplay:10.37,2013-02-16 02:35:00,
2013-02-15 20:36:00,13.6,6.2,30.17,WNW,282,2.4,3.8,72,0.00,CLR,,0.00,WeatherDisplay:10.37,2013-02-16 02:36:00,
2013-02-15 20:37:00,13.4,6.1,30.17,West,268,2.6,6.9,72,0.00,CLR,,0.00,WeatherDisplay:10.37,2013-02-16 02:37:00,
2013-02-15 20:40:00,13.4,6.1,30.17,NNW,335,2.4,6.9,72,0.00,CLR,,0.00,WeatherDisplay:10.37,2013-02-16 02:40:00,
2013-02-15 20:41:00,13.4,6.1,30.17,NNW,335,3.5,9.2,72,0.00,CLR,,0.00,WeatherDisplay:10.37,2013-02-16 02:41:00,
2013-02-15 20:42:00,13.3,6.0,30.17,NNW,336,4.5,9.2,72,0.00,CLR,,0.00,WeatherDisplay:10.37,2013-02-16 02:42:00,
2013-02-15 20:45:00,13.3,6.0,30.17,NW,315,3.1,5.0,72,0.00,CLR,,0.00,WeatherDisplay:10.37,2013-02-16 02:45:00,
2013-02-15 20:47:00,13.2,5.9,30.17,West,281,4.5,9.2,72,0.00,CLR,,0.00,WeatherDisplay:10.37,2013-02-16 02:47:00,
2013-02-15 20:48:00,13.2,5.9,30.17,NNW,332,4.7,8.1,72,0.00,CLR,,0.00,WeatherDisplay:10.37,2013-02-16 02:48:00,
2013-02-15 20:50:00,13.2,5.9,30.17,North,360,3.5,6.9,72,0.00,CLR,,0.00,WeatherDisplay:10.37,2013-02-16 02:50:00,
2013-02-15 20:52:00,13.2,5.9,30.17,NW,312,2.4,4.6,72,0.00,CLR,,0.00,WeatherDisplay:10.37,2013-02-16 02:52:00,
2013-02-15 20:53:00,13.1,5.8,30.17,NW,312,4.4,7.8,72,0.00,CLR,,0.00,WeatherDisplay:10.37,2013-02-16 02:53:00,
2013-02-15 20:55:00,13.0,5.7,30.17,NW,316,4.2,10.4,72,0.00,CLR,,0.00,WeatherDisplay:10.37,2013-02-16 02:55:00,
2013-02-15 20:57:00,13.0,5.7,30.18,NW,311,7.5,10.4,72,0.00,CLR,,0.00,WeatherDisplay:10.37,2013-02-16 02:57:00,
2013-02-15 20:58:00,13.0,5.7,30.17,WNW,299,5.0,11.5,72,0.00,CLR,,0.00,WeatherDisplay:10.37,2013-02-16 02:58:00,
2013-02-15 21:00:00,13.0,5.7,30.18,SSW,205,4.0,7.3,72,0.00,CLR,,0.00,WeatherDisplay:10.37,2013-02-16 03:00:00,
2013-02-15 21:01:00,13.0,5.7,30.17,NW,326,5.9,9.2,72,0.00,CLR,,0.00,WeatherDisplay:10.37,2013-02-16 03:01:00,
2013-02-15 21:02:00,12.9,5.6,30.17,NNW,344,4.6,11.5,72,0.00,CLR,,0.00,WeatherDisplay:10.37,2013-02-16 03:02:00,
2013-02-15 21:04:00,12.8,5.5,30.18,NNW,335,7.1,12.7,72,0.00,CLR,,0.00,WeatherDisplay:10.37,2013-02-16 03:04:00,
2013-02-15 21:05:00,12.8,5.5,30.18,NW,325,5.8,9.2,72,0.00,CLR,,0.00,WeatherDisplay:10.37,2013-02-16 03:05:00,
2013-02-15 21:06:00,12.9,5.6,30.18,NW,315,5.3,8.1,72,0.00,CLR,,0.00,WeatherDisplay:10.37,2013-02-16 03:06:00,
2013-02-15 21:07:00,12.8,5.5,30.18,NNW,332,2.0,6.9,72,0.00,CLR,,0.00,WeatherDisplay:10.37,2013-02-16 03:07:00,
2013-02-15 21:09:00,12.8,5.5,30.18,NNW,332,5.6,11.5,72,0.00,CLR,,0.00,WeatherDisplay:10.37,2013-02-16 03:09:00,
2013-02-15 21:10:00,12.7,5.4,30.18,NNW,342,3.4,7.1,72,0.00,CLR,,0.00,WeatherDisplay:10.37,2013-02-16 03:10:00,
2013-02-15 21:11:00,12.7,5.4,30.18,NW,312,5.3,8.1,72,0.00,CLR,,0.00,WeatherDisplay:10.37,2013-02-16 03:11:00,
2013-02-15 21:12:00,12.7,5.4,30.18,NNW,340,4.9,8.1,72,0.00,CLR,,0.00,WeatherDisplay:10.37,2013-02-16 03:12:00,
2013-02-15 21:14:00,12.5,5.2,30.18,NE,55,5.4,9.2,72,0.00,CLR,,0.00,WeatherDisplay:10.37,2013-02-16 03:14:00,
2013-02-15 21:15:00,12.6,5.3,30.18,NW,326,3.8,9.2,72,0.00,CLR,,0.00,WeatherDisplay:10.37,2013-02-16 03:15:00,
2013-02-15 21:16:00,12.5,5.2,30.18,NW,306,4.0,5.8,72,0.00,CLR,,0.00,WeatherDisplay:10.37,2013-02-16 03:16:00,
2013-02-15 21:17:00,12.6,5.3,30.18,NW,306,3.7,6.9,72,0.00,CLR,,0.00,WeatherDisplay:10.37,2013-02-16 03:17:00,
2013-02-15 21:19:00,12.5,5.5,30.18,North,349,5.4,8.1,73,0.00,CLR,,0.00,WeatherDisplay:10.37,2013-02-16 03:19:00,
2013-02-15 21:20:00,12.3,5.3,30.18,NW,322,3.8,10.4,73,0.00,CLR,,0.00,WeatherDisplay:10.37,2013-02-16 03:20:00,
2013-02-15 21:21:00,12.3,5.3,30.18,NNW,344,4.3,8.1,73,0.00,CLR,,0.00,WeatherDisplay:10.37,2013-02-16 03:21:00,
2013-02-15 21:22:00,12.4,5.4,30.18,WNW,292,2.8,6.9,73,0.00,CLR,,0.00,WeatherDisplay:10.37,2013-02-16 03:22:00,
2013-02-15 21:24:00,12.4,5.4,30.17,NNW,332,4.7,9.2,73,0.00,CLR,,0.00,WeatherDisplay:10.37,2013-02-16 03:24:00,
2013-02-15 21:25:00,12.4,5.4,30.18,WNW,299,6.6,8.1,73,0.00,CLR,,0.00,WeatherDisplay:10.37,2013-02-16 03:25:00,
2013-02-15 21:27:00,12.3,5.3,30.18,North,1,7.3,11.5,73,0.00,CLR,,0.00,WeatherDisplay:10.37,2013-02-16 03:27:00,
2013-02-15 21:29:00,12.3,5.3,30.18,West,268,3.5,6.9,73,0.00,CLR,,0.00,WeatherDisplay:10.37,2013-02-16 03:29:00,
2013-02-15 21:30:00,12.2,5.2,30.18,NW,325,5.2,9.2,73,0.00,CLR,,0.00,WeatherDisplay:10.37,2013-02-16 03:30:00,
2013-02-15 21:32:00,12.2,5.2,30.18,WNW,284,3.8,8.5,73,0.00,CLR,,0.00,WeatherDisplay:10.37,2013-02-16 03:32:00,
2013-02-15 21:34:00,12.1,5.1,30.18,NW,306,5.8,8.1,73,0.00,CLR,,0.00,WeatherDisplay:10.37,2013-02-16 03:34:00,
2013-02-15 21:35:00,12.0,5.0,30.18,NNW,342,6.2,8.1,73,0.00,CLR,,0.00,WeatherDisplay:10.37,2013-02-16 03:35:00,
2013-02-15 21:37:00,12.0,5.0,30.18,NW,323,5.8,9.2,73,0.00,CLR,,0.00,WeatherDisplay:10.37,2013-02-16 03:37:00,
2013-02-15 21:40:00,11.9,4.9,30.18,WNW,291,2.5,5.8,73,0.00,CLR,,0.00,WeatherDisplay:10.37,2013-02-16 03:40:00,
2013-02-15 21:41:00,11.9,4.9,30.18,NNE,21,5.3,11.5,73,0.00,CLR,,0.00,WeatherDisplay:10.37,2013-02-16 03:41:00,
2013-02-15 21:42:00,11.9,4.9,30.18,North,0,2.1,5.8,73,0.00,CLR,,0.00,WeatherDisplay:10.37,2013-02-16 03:42:00,
2013-02-15 21:45:00,11.8,4.8,30.18,NNW,328,1.4,5.8,73,0.00,CLR,,0.00,WeatherDisplay:10.37,2013-02-16 03:45:00,
2013-02-15 21:46:00,11.8,5.1,30.18,WSW,257,2.1,4.6,74,0.00,CLR,,0.00,WeatherDisplay:10.37,2013-02-16 03:46:00,
2013-02-15 21:47:00,11.8,5.1,30.18,NW,312,3.1,7.6,74,0.00,CLR,,0.00,WeatherDisplay:10.37,2013-02-16 03:47:00,
2013-02-15 21:48:00,11.7,5.0,30.18,NW,319,5.8,10.4,74,0.00,CLR,,0.00,WeatherDisplay:10.37,2013-02-16 03:48:00,
2013-02-15 21:50:00,11.6,4.9,30.18,NW,308,2.3,5.8,74,0.00,CLR,,0.00,WeatherDisplay:10.37,2013-02-16 03:50:00,
2013-02-15 21:51:00,11.5,4.8,30.18,NNE,17,1.7,4.6,74,0.00,CLR,,0.00,WeatherDisplay:10.37,2013-02-16 03:51:00,
2013-02-15 21:52:00,11.5,4.8,30.18,WNW,295,2.4,4.6,74,0.00,CLR,,0.00,WeatherDisplay:10.37,2013-02-16 03:52:00,
2013-02-15 21:53:00,11.5,4.8,30.18,NW,326,0.3,1.1,74,0.00,CLR,,0.00,WeatherDisplay:10.37,2013-02-16 03:53:00,
2013-02-15 21:55:00,11.4,4.7,30.18,WNW,302,4.2,5.8,74,0.00,CLR,,0.00,WeatherDisplay:10.37,2013-02-16 03:55:00,
2013-02-15 21:56:00,11.5,4.8,30.18,NNW,329,5.3,8.1,74,0.00,CLR,,0.00,WeatherDisplay:10.37,2013-02-16 03:56:00,
2013-02-15 21:57:00,11.4,4.7,30.18,WSW,253,6.6,11.5,74,0.00,CLR,,0.00,WeatherDisplay:10.37,2013-02-16 03:57:00,
2013-02-15 21:58:00,11.4,4.7,30.18,North,1,2.9,9.2,74,0.00,CLR,,0.00,WeatherDisplay:10.37,2013-02-16 03:58:00,
2013-02-15 22:00:00,11.4,4.7,30.18,NNW,332,1.3,3.5,74,0.00,CLR,,0.00,WeatherDisplay:10.37,2013-02-16 04:00:00,
2013-02-15 22:01:00,11.2,4.5,30.18,NNW,332,0.1,3.5,74,0.00,CLR,,0.00,WeatherDisplay:10.37,2013-02-16 04:01:00,
2013-02-15 22:02:00,11.3,4.6,30.18,NW,325,1.6,2.3,74,0.00,CLR,,0.00,WeatherDisplay:10.37,2013-02-16 04:02:00,
2013-02-15 22:03:00,11.3,4.6,30.18,NW,325,0.0,3.5,74,0.00,CLR,,0.00,WeatherDisplay:10.37,2013-02-16 04:03:00,
2013-02-15 22:05:00,11.3,4.6,30.18,NNW,343,3.4,6.9,74,0.00,CLR,,0.00,WeatherDisplay:10.37,2013-02-16 04:05:00,
2013-02-15 22:06:00,11.1,4.4,30.18,NNW,343,2.0,6.9,74,0.00,CLR,,0.00,WeatherDisplay:10.37,2013-02-16 04:06:00,
2013-02-15 22:07:00,11.1,4.4,30.18,WNW,288,0.3,3.5,74,0.00,CLR,,0.00,WeatherDisplay:10.37,2013-02-16 04:07:00,
2013-02-15 22:08:00,11.1,4.4,30.17,WNW,298,0.2,3.9,74,0.00,CLR,,0.00,WeatherDisplay:10.37,2013-02-16 04:08:00,
2013-02-15 22:11:00,11.1,4.4,30.17,NW,309,1.8,8.1,74,0.00,CLR,,0.00,WeatherDisplay:10.37,2013-02-16 04:11:00,
2013-02-15 22:12:00,11.0,4.3,30.17,North,354,1.4,6.9,74,0.00,CLR,,0.00,WeatherDisplay:10.37,2013-02-16 04:12:00,
2013-02-15 22:14:00,11.0,4.3,30.17,NNW,332,3.7,6.9,74,0.00,CLR,,0.00,WeatherDisplay:10.37,2013-02-16 04:14:00,
2013-02-15 22:16:00,11.0,4.3,30.17,WNW,284,3.7,6.9,74,0.00,CLR,,0.00,WeatherDisplay:10.37,2013-02-16 04:16:00,
2013-02-15 22:18:00,10.9,4.2,30.17,NNW,342,3.9,8.1,74,0.00,CLR,,0.00,WeatherDisplay:10.37,2013-02-16 04:18:00,
2013-02-15 22:19:00,10.9,4.2,30.17,North,360,1.4,3.7,74,0.00,CLR,,0.00,WeatherDisplay:10.37,2013-02-16 04:19:00,
2013-02-15 22:21:00,10.7,4.0,30.17,North,357,3.5,5.8,74,0.00,CLR,,0.00,WeatherDisplay:10.37,2013-02-16 04:21:00,
2013-02-15 22:23:00,10.8,4.1,30.17,NW,318,1.9,5.8,74,0.00,CLR,,0.00,WeatherDisplay:10.37,2013-02-16 04:23:00,
2013-02-15 22:24:00,10.8,4.1,30.17,NNW,343,2.8,7.9,74,0.00,CLR,,0.00,WeatherDisplay:10.37,2013-02-16 04:24:00,
2013-02-15 22:26:00,10.7,4.0,30.17,WNW,289,3.6,6.9,74,0.00,CLR,,0.00,WeatherDisplay:10.37,2013-02-16 04:26:00,
2013-02-15 22:28:00,10.7,4.0,30.17,NNW,328,3.2,6.9,74,0.00,CLR,,0.00,WeatherDisplay:10.37,2013-02-16 04:28:00,
2013-02-15 22:29:00,10.7,4.0,30.17,WNW,292,1.6,5.8,74,0.00,CLR,,0.00,WeatherDisplay:10.37,2013-02-16 04:29:00,
2013-02-15 22:31:00,10.5,3.8,30.17,NW,316,3.4,6.9,74,0.00,CLR,,0.00,WeatherDisplay:10.37,2013-02-16 04:31:00,
2013-02-15 22:32:00,10.6,3.9,30.17,NW,320,3.9,5.8,74,0.00,CLR,,0.00,WeatherDisplay:10.37,2013-02-16 04:32:00,
2013-02-15 22:33:00,10.7,4.0,30.17,NW,312,0.4,5.8,74,0.00,CLR,,0.00,WeatherDisplay:10.37,2013-02-16 04:33:00,
2013-02-15 22:34:00,10.6,3.9,30.17,North,349,3.5,5.8,74,0.00,CLR,,0.00,WeatherDisplay:10.37,2013-02-16 04:34:00,
2013-02-15 22:36:00,10.5,3.8,30.17,NW,308,2.5,4.6,74,0.00,CLR,,0.00,WeatherDisplay:10.37,2013-02-16 04:36:00,
2013-02-15 22:37:00,10.5,3.8,30.17,NW,309,3.3,4.6,74,0.00,CLR,,0.00,WeatherDisplay:10.37,2013-02-16 04:37:00,
2013-02-15 22:39:00,10.4,3.8,30.17,NW,319,2.7,6.9,74,0.00,CLR,,0.00,WeatherDisplay:10.37,2013-02-16 04:39:00,
2013-02-15 22:41:00,10.4,4.0,30.17,WNW,284,1.9,5.8,75,0.00,CLR,,0.00,WeatherDisplay:10.37,2013-02-16 04:41:00,
2013-02-15 22:42:00,10.5,4.1,30.17,NW,305,1.4,4.6,75,0.00,CLR,,0.00,WeatherDisplay:10.37,2013-02-16 04:42:00,
2013-02-15 22:44:00,10.4,4.0,30.17,NW,315,3.0,4.6,75,0.00,CLR,,0.00,WeatherDisplay:10.37,2013-02-16 04:44:00,
2013-02-15 22:45:00,10.4,4.0,30.17,WNW,299,2.2,4.6,75,0.00,CLR,,0.00,WeatherDisplay:10.37,2013-02-16 04:45:00,
2013-02-15 22:46:00,10.3,3.9,30.17,NNW,332,0.4,2.7,75,0.00,CLR,,0.00,WeatherDisplay:10.37,2013-02-16 04:46:00,
2013-02-15 22:47:00,10.3,3.9,30.17,North,354,2.1,4.0,75,0.00,CLR,,0.00,WeatherDisplay:10.37,2013-02-16 04:47:00,
2013-02-15 22:49:00,10.2,3.8,30.17,WNW,298,1.2,4.6,75,0.00,CLR,,0.00,WeatherDisplay:10.37,2013-02-16 04:49:00,
2013-02-15 22:50:00,10.3,3.9,30.17,West,260,2.7,5.8,75,0.00,CLR,,0.00,WeatherDisplay:10.37,2013-02-16 04:50:00,
2013-02-15 22:51:00,10.2,3.8,30.17,WNW,302,2.7,5.8,75,0.00,CLR,,0.00,WeatherDisplay:10.37,2013-02-16 04:51:00,
2013-02-15 22:52:00,10.1,3.8,30.17,NNW,330,2.6,4.6,75,0.00,CLR,,0.00,WeatherDisplay:10.37,2013-02-16 04:52:00,
2013-02-15 22:54:00,10.1,3.8,30.17,NNW,340,2.5,4.6,75,0.00,CLR,,0.00,WeatherDisplay:10.37,2013-02-16 04:54:00,
2013-02-15 22:56:00,10.0,3.7,30.17,NW,319,2.3,4.6,75,0.00,CLR,,0.00,WeatherDisplay:10.37,2013-02-16 04:56:00,
2013-02-15 22:58:00,9.9,3.6,30.17,NW,308,2.0,4.6,75,0.00,CLR,,0.00,WeatherDisplay:10.37,2013-02-16 04:58:00,
2013-02-15 22:59:00,9.9,3.6,30.17,NW,309,3.1,6.9,75,0.00,CLR,,0.00,WeatherDisplay:10.37,2013-02-16 04:59:00,
2013-02-15 23:00:00,9.9,3.6,30.17,WNW,296,2.6,3.5,75,0.00,CLR,,0.00,WeatherDisplay:10.37,2013-02-16 05:00:00,
2013-02-15 23:05:00,9.8,3.7,30.17,NW,309,3.2,5.6,76,0.00,CLR,,0.00,WeatherDisplay:10.37,2013-02-16 05:05:00,
2013-02-15 23:10:00,9.8,3.7,30.17,NW,322,1.7,4.6,76,0.00,CLR,,0.00,WeatherDisplay:10.37,2013-02-16 05:10:00,
2013-02-15 23:15:00,9.5,3.5,30.17,WNW,282,1.7,5.5,76,0.00,CLR,,0.00,WeatherDisplay:10.37,2013-02-16 05:15:00,
2013-02-15 23:16:00,9.7,3.7,30.17,NW,315,3.6,5.8,76,0.00,CLR,,0.00,WeatherDisplay:10.37,2013-02-16 05:16:00,
2013-02-15 23:20:00,9.6,3.6,30.17,WNW,299,2.8,5.8,76,0.00,CLR,,0.00,WeatherDisplay:10.37,2013-02-16 05:20:00,
2013-02-15 23:21:00,9.5,3.5,30.17,NW,325,3.1,5.8,76,0.00,CLR,,0.00,WeatherDisplay:10.37,2013-02-16 05:21:00,
2013-02-15 23:23:00,9.4,3.4,30.17,WNW,287,3.4,6.0,76,0.00,CLR,,0.00,WeatherDisplay:10.37,2013-02-16 05:23:00,
2013-02-15 23:25:00,9.4,3.4,30.17,NW,309,2.4,3.5,76,0.00,CLR,,0.00,WeatherDisplay:10.37,2013-02-16 05:25:00,
2013-02-15 23:26:00,9.3,3.3,30.17,North,352,2.1,4.6,76,0.00,CLR,,0.00,WeatherDisplay:10.37,2013-02-16 05:26:00,
2013-02-15 23:28:00,9.3,3.3,30.17,NW,312,1.4,5.8,76,0.00,CLR,,0.00,WeatherDisplay:10.37,2013-02-16 05:28:00,
2013-02-15 23:30:00,9.2,3.2,30.17,NNW,340,3.9,7.1,76,0.00,CLR,,0.00,WeatherDisplay:10.37,2013-02-16 05:30:00,
2013-02-15 23:31:00,9.1,3.1,30.17,NNW,340,4.3,8.1,76,0.00,CLR,,0.00,WeatherDisplay:10.37,2013-02-16 05:31:00,
2013-02-15 23:33:00,9.3,3.3,30.17,NNW,337,3.9,5.8,76,0.00,CLR,,0.00,WeatherDisplay:10.37,2013-02-16 05:33:00,
2013-02-15 23:36:00,9.2,3.2,30.17,NNW,347,2.9,4.6,76,0.00,CLR,,0.00,WeatherDisplay:10.37,2013-02-16 05:36:00,
2013-02-15 23:38:00,9.2,3.2,30.17,NNW,340,1.6,4.6,76,0.00,CLR,,0.00,WeatherDisplay:10.37,2013-02-16 05:38:00,
2013-02-15 23:41:00,9.1,3.1,30.17,NW,325,1.6,4.6,76,0.00,CLR,,0.00,WeatherDisplay:10.37,2013-02-16 05:41:00,
2013-02-15 23:43:00,9.1,3.1,30.16,WNW,294,0.0,3.5,76,0.00,CLR,,0.00,WeatherDisplay:10.37,2013-02-16 05:43:00,
2013-02-15 23:46:00,9.0,3.0,30.16,WNW,296,0.5,3.5,76,0.00,CLR,,0.00,WeatherDisplay:10.37,2013-02-16 05:46:00,
2013-02-15 23:48:00,8.9,2.9,30.16,WNW,282,1.0,0.0,76,0.00,CLR,,0.00,WeatherDisplay:10.37,2013-02-16 05:48:00,
2013-02-15 23:51:00,9.0,3.0,30.16,WNW,296,1.6,1.7,76,0.00,CLR,,0.00,WeatherDisplay:10.37,2013-02-16 05:51:00,
2013-02-15 23:52:00,9.0,3.0,30.16,NW,306,2.0,3.5,76,0.00,CLR,,0.00,WeatherDisplay:10.37,2013-02-16 05:52:00,
2013-02-15 23:53:00,8.8,2.8,30.16,NW,315,0.4,2.3,76,0.00,CLR,,0.00,WeatherDisplay:10.37,2013-02-16 05:53:00,
2013-02-15 23:56:00,8.8,2.8,30.16,NW,320,1.1,4.6,76,0.00,CLR,,0.00,WeatherDisplay:10.37,2013-02-16 05:56:00,
2013-02-15 23:57:00,8.8,2.8,30.16,NW,320,1.3,4.6,76,0.00,CLR,,0.00,WeatherDisplay:10.37,2013-02-16 05:57:00,
2013-02-15 23:59:00,8.7,2.7,30.16,WNW,295,0.3,3.5,76,0.00,CLR,,0.00,WeatherDisplay:10.37,2013-02-16 05:59:00,